Time,TemperatureF,DewpointF,PressureIn,WindDirection,WindDirectionDegrees,WindSpeedMPH,WindSpeedGustMPH,Humidity,HourlyPrecipIn,Conditions,Clouds,dailyrainin,SoftwareType,DateUTC
2013-09-12 00:00:00,71.3,68.9,29.83,WSW,253,0.0,1.0,92,0.00,,---,0.00,VWS V14.01,2013-09-12 05:00:00,
2013-09-12 00:01:00,71.3,68.9,29.83,West,262,2.0,2.0,92,0.00,,---,0.00,VWS V14.01,2013-09-12 05:01:00,
2013-09-12 00:02:00,71.3,68.9,29.83,West,259,1.0,3.0,92,0.00,,---,0.00,VWS V14.01,2013-09-12 05:02:00,
2013-09-12 00:04:00,71.5,69.1,29.83,West,259,1.0,2.0,92,0.00,,---,0.00,VWS V14.01,2013-09-12 05:04:00,
2013-09-12 00:06:00,71.5,69.1,29.83,WSW,252,0.0,1.0,92,0.00,,---,0.00,VWS V14.01,2013-09-12 05:06:00,
2013-09-12 00:07:00,71.5,69.1,29.83,WSW,252,0.0,1.0,92,0.00,,---,0.00,VWS V14.01,2013-09-12 05:07:00,
2013-09-12 00:09:00,71.6,69.2,29.83,West,267,0.0,2.0,92,0.00,,---,0.00,VWS V14.01,2013-09-12 05:09:00,
2013-09-12 00:10:00,71.6,69.2,29.83,WSW,250,0.0,4.0,92,0.00,,---,0.00,VWS V14.01,2013-09-12 05:10:00,
2013-09-12 00:13:00,71.6,69.2,29.83,SW,220,0.0,3.0,92,0.00,,---,0.00,VWS V14.01,2013-09-12 05:13:00,
2013-09-12 00:16:00,71.6,69.2,29.84,SW,214,1.0,2.0,92,0.00,,---,0.00,VWS V14.01,2013-09-12 05:16:00,
2013-09-12 00:18:00,71.6,69.2,29.84,SW,233,0.0,2.0,92,0.00,,---,0.00,VWS V14.01,2013-09-12 05:18:00,
2013-09-12 00:19:00,71.6,69.2,29.84,SW,233,1.0,1.0,92,0.00,,---,0.00,VWS V14.01,2013-09-12 05:19:00,
2013-09-12 00:22:00,71.6,69.2,29.84,SW,236,0.0,0.0,92,0.00,,---,0.00,VWS V14.01,2013-09-12 05:22:00,
2013-09-12 00:24:00,71.6,69.2,29.84,SW,236,0.0,0.0,92,0.00,,---,0.00,VWS V14.01,2013-09-12 05:24:00,
2013-09-12 00:25:00,71.6,69.2,29.84,SW,236,0.0,0.0,92,0.00,,---,0.00,VWS V14.01,2013-09-12 05:25:00,
2013-09-12 00:26:00,71.6,69.2,29.84,SW,236,0.0,0.0,92,0.00,,---,0.00,VWS V14.01,2013-09-12 05:26:00,
2013-09-12 00:29:00,71.6,69.2,29.84,SW,236,0.0,0.0,92,0.00,,---,0.00,VWS V14.01,2013-09-12 05:29:00,
2013-09-12 00:31:00,71.6,69.2,29.84,SW,215,0.0,1.0,92,0.00,,---,0.00,VWS V14.01,2013-09-12 05:31:00,
2013-09-12 00:32:00,71.6,69.2,29.84,SW,215,0.0,0.0,92,0.00,,---,0.00,VWS V14.01,2013-09-12 05:32:00,
2013-09-12 00:34:00,71.6,69.5,29.84,SW,226,0.0,1.0,93,0.00,,---,0.00,VWS V14.01,2013-09-12 05:34:00,
2013-09-12 00:36:00,71.6,69.5,29.84,WSW,239,0.0,2.0,93,0.00,,---,0.00,VWS V14.01,2013-09-12 05:36:00,
2013-09-12 00:37:00,71.6,69.2,29.84,WSW,239,1.0,1.0,92,0.00,,---,0.00,VWS V14.01,2013-09-12 05:37:00,
2013-09-12 00:38:00,71.6,69.5,29.84,SW,228,0.0,1.0,93,0.00,,---,0.00,VWS V14.01,2013-09-12 05:38:00,
2013-09-12 00:41:00,71.6,69.2,29.84,SW,221,1.0,1.0,92,0.01,,---,0.01,VWS V14.01,2013-09-12 05:41:00,
2013-09-12 00:42:00,71.6,69.2,29.84,WSW,248,2.0,4.0,92,0.01,,---,0.01,VWS V14.01,2013-09-12 05:42:00,
2013-09-12 00:43:00,71.6,69.2,29.84,WSW,246,0.0,2.0,92,0.01,,---,0.01,VWS V14.01,2013-09-12 05:43:00,
2013-09-12 00:47:00,71.6,69.2,29.83,SSW,213,0.0,2.0,92,0.01,,---,0.01,VWS V14.01,2013-09-12 05:47:00,
2013-09-12 00:48:00,71.6,69.2,29.83,SW,234,2.0,5.0,92,0.01,,---,0.01,VWS V14.01,2013-09-12 05:48:00,
2013-09-12 00:50:00,71.6,69.2,29.83,SW,233,0.0,1.0,92,0.01,,---,0.01,VWS V14.01,2013-09-12 05:50:00,
2013-09-12 00:51:00,71.6,69.2,29.83,SW,236,0.0,5.0,92,0.01,,---,0.01,VWS V14.01,2013-09-12 05:51:00,
2013-09-12 00:53:00,71.6,69.2,29.83,SW,236,0.0,0.0,92,0.01,,---,0.01,VWS V14.01,2013-09-12 05:53:00,
2013-09-12 00:56:00,71.8,69.3,29.83,SW,222,0.0,1.0,92,0.01,,---,0.01,VWS V14.01,2013-09-12 05:56:00,
2013-09-12 00:57:00,71.6,69.2,29.83,SW,222,0.0,0.0,92,0.01,,---,0.01,VWS V14.01,2013-09-12 05:57:00,
2013-09-12 00:58:00,71.8,69.3,29.83,SW,222,0.0,0.0,92,0.01,,---,0.01,VWS V14.01,2013-09-12 05:58:00,
2013-09-12 01:01:00,71.6,69.5,29.83,SSW,193,0.0,0.0,93,0.01,,---,0.01,VWS V14.01,2013-09-12 06:01:00,
2013-09-12 01:03:00,71.6,69.5,29.83,SSW,193,0.0,0.0,93,0.01,,---,0.01,VWS V14.01,2013-09-12 06:03:00,
2013-09-12 01:04:00,71.6,69.5,29.83,SSW,193,0.0,1.0,93,0.01,,---,0.01,VWS V14.01,2013-09-12 06:04:00,
2013-09-12 01:06:00,71.6,69.5,29.83,SSW,193,0.0,0.0,93,0.01,,---,0.01,VWS V14.01,2013-09-12 06:06:00,
2013-09-12 01:07:00,71.6,69.5,29.83,SSW,193,0.0,0.0,93,0.01,,---,0.01,VWS V14.01,2013-09-12 06:07:00,
2013-09-12 01:08:00,71.6,69.5,29.83,SSW,193,0.0,0.0,93,0.01,,---,0.01,VWS V14.01,2013-09-12 06:08:00,
2013-09-12 01:10:00,71.6,69.5,29.83,SSW,193,0.0,0.0,93,0.01,,---,0.01,VWS V14.01,2013-09-12 06:10:00,
2013-09-12 01:11:00,71.6,69.5,29.83,SSW,197,0.0,2.0,93,0.01,,---,0.01,VWS V14.01,2013-09-12 06:11:00,
2013-09-12 01:12:00,71.6,69.5,29.83,SW,226,1.0,1.0,93,0.01,,---,0.01,VWS V14.01,2013-09-12 06:12:00,
2013-09-12 01:13:00,71.6,69.5,29.83,SW,226,0.0,1.0,93,0.01,,---,0.01,VWS V14.01,2013-09-12 06:13:00,
2013-09-12 01:14:00,71.6,69.5,29.83,SW,226,0.0,0.0,93,0.01,,---,0.01,VWS V14.01,2013-09-12 06:14:00,
2013-09-12 01:17:00,71.6,69.5,29.83,SW,226,0.0,0.0,93,0.01,,---,0.01,VWS V14.01,2013-09-12 06:17:00,
2013-09-12 01:18:00,71.6,69.5,29.83,SW,226,0.0,0.0,93,0.01,,---,0.01,VWS V14.01,2013-09-12 06:18:00,
2013-09-12 01:19:00,71.6,69.5,29.83,SW,226,0.0,0.0,93,0.01,,---,0.01,VWS V14.01,2013-09-12 06:19:00,
2013-09-12 01:21:00,71.6,69.5,29.83,SW,226,0.0,0.0,93,0.01,,---,0.01,VWS V14.01,2013-09-12 06:21:00,
2013-09-12 01:23:00,71.6,69.5,29.83,SW,226,0.0,0.0,93,0.01,,---,0.01,VWS V14.01,2013-09-12 06:23:00,
2013-09-12 01:24:00,71.6,69.5,29.83,SW,226,0.0,0.0,93,0.01,,---,0.01,VWS V14.01,2013-09-12 06:24:00,
2013-09-12 01:26:00,71.6,69.5,29.83,SW,226,0.0,0.0,93,0.01,,---,0.01,VWS V14.01,2013-09-12 06:26:00,
2013-09-12 01:28:00,71.6,69.5,29.83,SW,226,0.0,0.0,93,0.01,,---,0.01,VWS V14.01,2013-09-12 06:28:00,
2013-09-12 01:29:00,71.6,69.5,29.82,SW,226,0.0,0.0,93,0.01,,---,0.01,VWS V14.01,2013-09-12 06:29:00,
2013-09-12 01:30:00,71.6,69.5,29.82,SW,226,0.0,0.0,93,0.01,,---,0.01,VWS V14.01,2013-09-12 06:30:00,
2013-09-12 01:31:00,71.6,69.5,29.82,SW,219,0.0,1.0,93,0.01,,---,0.01,VWS V14.01,2013-09-12 06:31:00,
2013-09-12 01:34:00,71.6,69.5,29.82,SW,219,0.0,0.0,93,0.01,,---,0.01,VWS V14.01,2013-09-12 06:34:00,
2013-09-12 01:35:00,71.6,69.5,29.82,SW,219,0.0,0.0,93,0.01,,---,0.01,VWS V14.01,2013-09-12 06:35:00,
2013-09-12 01:36:00,71.6,69.5,29.82,SW,219,0.0,0.0,93,0.01,,---,0.01,VWS V14.01,2013-09-12 06:36:00,
2013-09-12 01:37:00,71.6,69.5,29.82,SW,219,0.0,0.0,93,0.01,,---,0.01,VWS V14.01,2013-09-12 06:37:00,
2013-09-12 01:40:00,71.5,69.4,29.82,SW,219,0.0,0.0,93,0.01,,---,0.01,VWS V14.01,2013-09-12 06:40:00,
2013-09-12 01:42:00,71.5,69.4,29.82,SW,219,0.0,0.0,93,0.00,,---,0.01,VWS V14.01,2013-09-12 06:42:00,
2013-09-12 01:44:00,71.5,69.4,29.82,SW,220,0.0,0.0,93,0.00,,---,0.01,VWS V14.01,2013-09-12 06:44:00,
2013-09-12 01:45:00,71.5,69.4,29.82,SW,220,0.0,0.0,93,0.00,,---,0.01,VWS V14.01,2013-09-12 06:45:00,
2013-09-12 01:46:00,71.5,69.4,29.82,SW,220,0.0,0.0,93,0.00,,---,0.01,VWS V14.01,2013-09-12 06:46:00,
2013-09-12 01:47:00,71.5,69.4,29.82,SW,220,0.0,0.0,93,0.00,,---,0.01,VWS V14.01,2013-09-12 06:47:00,
2013-09-12 01:48:00,71.5,69.4,29.82,SW,220,0.0,0.0,93,0.00,,---,0.01,VWS V14.01,2013-09-12 06:48:00,
2013-09-12 01:50:00,71.5,69.4,29.82,SW,220,0.0,1.0,93,0.00,,---,0.01,VWS V14.01,2013-09-12 06:50:00,
2013-09-12 01:51:00,71.5,69.4,29.82,SW,236,0.0,3.0,93,0.00,,---,0.01,VWS V14.01,2013-09-12 06:51:00,
2013-09-12 01:52:00,71.5,69.4,29.82,SW,235,0.0,2.0,93,0.00,,---,0.01,VWS V14.01,2013-09-12 06:52:00,
2013-09-12 01:56:00,71.5,69.4,29.82,SW,235,0.0,0.0,93,0.00,,---,0.01,VWS V14.01,2013-09-12 06:56:00,
2013-09-12 01:57:00,71.5,69.4,29.82,SW,235,0.0,0.0,93,0.00,,---,0.01,VWS V14.01,2013-09-12 06:57:00,
2013-09-12 01:58:00,71.5,69.4,29.82,SW,235,0.0,0.0,93,0.00,,---,0.01,VWS V14.01,2013-09-12 06:58:00,
2013-09-12 01:59:00,71.5,69.4,29.82,SW,235,0.0,0.0,93,0.00,,---,0.01,VWS V14.01,2013-09-12 06:59:00,
2013-09-12 02:02:00,71.5,69.4,29.82,SW,235,0.0,1.0,93,0.00,,---,0.01,VWS V14.01,2013-09-12 07:02:00,
2013-09-12 02:03:00,71.5,69.4,29.82,SW,235,0.0,0.0,93,0.00,,---,0.01,VWS V14.01,2013-09-12 07:03:00,
2013-09-12 02:04:00,71.5,69.4,29.82,SW,235,0.0,0.0,93,0.00,,---,0.01,VWS V14.01,2013-09-12 07:04:00,
2013-09-12 02:05:00,71.5,69.4,29.82,SW,235,0.0,0.0,93,0.00,,---,0.01,VWS V14.01,2013-09-12 07:05:00,
2013-09-12 02:07:00,71.5,69.4,29.82,SW,235,0.0,0.0,93,0.00,,---,0.01,VWS V14.01,2013-09-12 07:07:00,
2013-09-12 02:09:00,71.5,69.4,29.82,SW,235,0.0,0.0,93,0.00,,---,0.01,VWS V14.01,2013-09-12 07:09:00,
2013-09-12 02:11:00,71.5,69.4,29.82,SW,235,0.0,0.0,93,0.00,,---,0.01,VWS V14.01,2013-09-12 07:11:00,
2013-09-12 02:12:00,71.5,69.4,29.82,SW,235,0.0,0.0,93,0.00,,---,0.01,VWS V14.01,2013-09-12 07:12:00,
2013-09-12 02:14:00,71.5,69.4,29.81,SW,235,0.0,0.0,93,0.00,,---,0.01,VWS V14.01,2013-09-12 07:14:00,
2013-09-12 02:15:00,71.5,69.4,29.81,SW,235,0.0,0.0,93,0.00,,---,0.01,VWS V14.01,2013-09-12 07:15:00,
2013-09-12 02:18:00,71.5,69.7,29.81,SW,235,0.0,1.0,94,0.00,,---,0.01,VWS V14.01,2013-09-12 07:18:00,
2013-09-12 02:19:00,71.3,69.5,29.81,SW,235,0.0,0.0,94,0.00,,---,0.01,VWS V14.01,2013-09-12 07:19:00,
2013-09-12 02:20:00,71.3,69.5,29.81,SW,235,0.0,0.0,94,0.00,,---,0.01,VWS V14.01,2013-09-12 07:20:00,
2013-09-12 02:22:00,71.3,69.5,29.81,SW,235,0.0,0.0,94,0.00,,---,0.01,VWS V14.01,2013-09-12 07:22:00,
2013-09-12 02:25:00,71.3,69.5,29.81,SW,235,0.0,0.0,94,0.00,,---,0.01,VWS V14.01,2013-09-12 07:25:00,
2013-09-12 02:26:00,71.3,69.5,29.81,SW,235,0.0,1.0,94,0.00,,---,0.01,VWS V14.01,2013-09-12 07:26:00,
2013-09-12 02:27:00,71.3,69.5,29.81,SW,235,0.0,0.0,94,0.00,,---,0.01,VWS V14.01,2013-09-12 07:27:00,
2013-09-12 02:30:00,71.3,69.5,29.81,SW,235,0.0,0.0,94,0.00,,---,0.01,VWS V14.01,2013-09-12 07:30:00,
2013-09-12 02:31:00,71.3,69.5,29.81,SW,235,0.0,0.0,94,0.00,,---,0.01,VWS V14.01,2013-09-12 07:31:00,
2013-09-12 02:32:00,71.3,69.5,29.81,SW,235,0.0,0.0,94,0.00,,---,0.01,VWS V14.01,2013-09-12 07:32:00,
2013-09-12 02:36:00,71.3,69.5,29.81,SW,235,0.0,0.0,94,0.00,,---,0.01,VWS V14.01,2013-09-12 07:36:00,
2013-09-12 02:37:00,71.3,69.5,29.81,SW,235,0.0,0.0,94,0.00,,---,0.01,VWS V14.01,2013-09-12 07:37:00,
2013-09-12 02:38:00,71.1,69.3,29.81,SW,235,0.0,0.0,94,0.00,,---,0.01,VWS V14.01,2013-09-12 07:38:00,
2013-09-12 02:41:00,71.1,69.3,29.81,SW,235,0.0,0.0,94,0.00,,---,0.01,VWS V14.01,2013-09-12 07:41:00,
2013-09-12 02:44:00,71.1,69.3,29.81,SW,235,0.0,0.0,94,0.00,,---,0.01,VWS V14.01,2013-09-12 07:44:00,
2013-09-12 02:45:00,71.1,69.3,29.81,SW,235,0.0,0.0,94,0.00,,---,0.01,VWS V14.01,2013-09-12 07:45:00,
2013-09-12 02:47:00,71.1,69.3,29.81,SW,235,0.0,0.0,94,0.00,,---,0.01,VWS V14.01,2013-09-12 07:47:00,
2013-09-12 02:49:00,71.1,69.3,29.81,SW,235,0.0,0.0,94,0.00,,---,0.01,VWS V14.01,2013-09-12 07:49:00,
2013-09-12 02:50:00,71.1,69.3,29.81,SW,235,0.0,0.0,94,0.00,,---,0.01,VWS V14.01,2013-09-12 07:50:00,
2013-09-12 02:53:00,70.9,69.1,29.81,SW,235,0.0,0.0,94,0.00,,---,0.01,VWS V14.01,2013-09-12 07:53:00,
2013-09-12 02:54:00,70.9,69.1,29.81,SW,235,0.0,0.0,94,0.00,,---,0.01,VWS V14.01,2013-09-12 07:54:00,
2013-09-12 02:55:00,70.9,69.1,29.81,SW,235,0.0,0.0,94,0.00,,---,0.01,VWS V14.01,2013-09-12 07:55:00,
2013-09-12 02:56:00,70.9,69.1,29.81,SW,235,0.0,0.0,94,0.00,,---,0.01,VWS V14.01,2013-09-12 07:56:00,
2013-09-12 02:58:00,70.9,69.1,29.81,SW,235,0.0,0.0,94,0.00,,---,0.01,VWS V14.01,2013-09-12 07:58:00,
2013-09-12 03:00:00,70.9,69.1,29.81,SW,235,0.0,0.0,94,0.00,,---,0.01,VWS V14.01,2013-09-12 08:00:00,
2013-09-12 03:01:00,70.9,69.1,29.81,SW,235,0.0,0.0,94,0.00,,---,0.01,VWS V14.01,2013-09-12 08:01:00,
2013-09-12 03:03:00,70.9,69.1,29.81,SW,235,0.0,0.0,94,0.00,,---,0.01,VWS V14.01,2013-09-12 08:03:00,
2013-09-12 03:04:00,70.9,69.1,29.81,SW,235,0.0,0.0,94,0.00,,---,0.01,VWS V14.01,2013-09-12 08:04:00,
2013-09-12 03:05:00,70.9,69.1,29.81,SW,235,0.0,0.0,94,0.00,,---,0.01,VWS V14.01,2013-09-12 08:05:00,
2013-09-12 03:06:00,70.9,69.1,29.81,SW,235,0.0,0.0,94,0.00,,---,0.01,VWS V14.01,2013-09-12 08:06:00,
2013-09-12 03:07:00,70.8,69.0,29.81,SW,235,0.0,0.0,94,0.00,,---,0.01,VWS V14.01,2013-09-12 08:07:00,
2013-09-12 03:09:00,70.8,69.0,29.81,SW,235,0.0,0.0,94,0.00,,---,0.01,VWS V14.01,2013-09-12 08:09:00,
2013-09-12 03:10:00,70.8,69.0,29.81,SW,235,0.0,0.0,94,0.00,,---,0.01,VWS V14.01,2013-09-12 08:10:00,
2013-09-12 03:13:00,70.8,69.3,29.81,SW,235,0.0,0.0,95,0.00,,---,0.01,VWS V14.01,2013-09-12 08:13:00,
2013-09-12 03:14:00,70.8,69.3,29.81,SW,235,0.0,0.0,95,0.00,,---,0.01,VWS V14.01,2013-09-12 08:14:00,
2013-09-12 03:15:00,70.8,69.3,29.81,SW,235,0.0,0.0,95,0.00,,---,0.01,VWS V14.01,2013-09-12 08:15:00,
2013-09-12 03:16:00,70.8,69.3,29.81,SW,235,0.0,0.0,95,0.00,,---,0.01,VWS V14.01,2013-09-12 08:16:00,
2013-09-12 03:17:00,70.8,69.3,29.81,SW,235,0.0,0.0,95,0.00,,---,0.01,VWS V14.01,2013-09-12 08:17:00,
2013-09-12 03:20:00,70.6,69.1,29.81,SW,235,0.0,0.0,95,0.00,,---,0.01,VWS V14.01,2013-09-12 08:20:00,
2013-09-12 03:21:00,70.6,69.1,29.81,SW,235,0.0,0.0,95,0.00,,---,0.01,VWS V14.01,2013-09-12 08:21:00,
2013-09-12 03:25:00,70.6,69.1,29.81,SW,235,0.0,0.0,95,0.00,,---,0.01,VWS V14.01,2013-09-12 08:25:00,
2013-09-12 03:26:00,70.6,69.1,29.81,SW,235,0.0,0.0,95,0.00,,---,0.01,VWS V14.01,2013-09-12 08:26:00,
2013-09-12 03:27:00,70.6,69.1,29.81,SW,235,0.0,0.0,95,0.00,,---,0.01,VWS V14.01,2013-09-12 08:27:00,
2013-09-12 03:28:00,70.6,69.1,29.81,SW,235,0.0,0.0,95,0.00,,---,0.01,VWS V14.01,2013-09-12 08:28:00,
2013-09-12 03:32:00,70.6,69.1,29.82,SW,235,0.0,0.0,95,0.00,,---,0.01,VWS V14.01,2013-09-12 08:32:00,
2013-09-12 03:33:00,70.6,69.1,29.82,SW,235,0.0,0.0,95,0.00,,---,0.01,VWS V14.01,2013-09-12 08:33:00,
2013-09-12 03:34:00,70.6,69.1,29.82,SW,235,0.0,0.0,95,0.00,,---,0.01,VWS V14.01,2013-09-12 08:34:00,
2013-09-12 03:36:00,70.6,69.1,29.82,SW,235,0.0,0.0,95,0.00,,---,0.01,VWS V14.01,2013-09-12 08:36:00,
2013-09-12 03:37:00,70.6,69.1,29.82,SW,235,0.0,0.0,95,0.00,,---,0.01,VWS V14.01,2013-09-12 08:37:00,
2013-09-12 03:39:00,70.6,69.1,29.82,SW,235,0.0,0.0,95,0.00,,---,0.01,VWS V14.01,2013-09-12 08:39:00,
2013-09-12 03:41:00,70.6,69.1,29.82,SW,235,0.0,0.0,95,0.00,,---,0.01,VWS V14.01,2013-09-12 08:41:00,
2013-09-12 03:44:00,70.6,69.1,29.82,SW,235,0.0,0.0,95,0.00,,---,0.01,VWS V14.01,2013-09-12 08:44:00,
2013-09-12 03:46:00,70.4,68.9,29.82,SW,235,0.0,0.0,95,0.00,,---,0.01,VWS V14.01,2013-09-12 08:46:00,
2013-09-12 03:47:00,70.4,68.9,29.82,SW,235,0.0,0.0,95,0.00,,---,0.01,VWS V14.01,2013-09-12 08:47:00,
2013-09-12 03:48:00,70.4,69.2,29.82,SW,235,0.0,1.0,96,0.00,,---,0.01,VWS V14.01,2013-09-12 08:48:00,
2013-09-12 03:49:00,70.4,69.2,29.82,SW,235,0.0,0.0,96,0.00,,---,0.01,VWS V14.01,2013-09-12 08:49:00,
2013-09-12 03:50:00,70.4,69.2,29.82,SW,235,0.0,0.0,96,0.00,,---,0.01,VWS V14.01,2013-09-12 08:50:00,
2013-09-12 03:52:00,70.4,69.2,29.82,SW,235,0.0,0.0,96,0.00,,---,0.01,VWS V14.01,2013-09-12 08:52:00,
2013-09-12 03:54:00,70.4,69.2,29.82,SW,235,0.0,0.0,96,0.00,,---,0.01,VWS V14.01,2013-09-12 08:54:00,
2013-09-12 03:56:00,70.4,69.2,29.82,SW,235,0.0,0.0,96,0.00,,---,0.01,VWS V14.01,2013-09-12 08:56:00,
2013-09-12 03:57:00,70.4,69.2,29.82,SW,235,0.0,1.0,96,0.00,,---,0.01,VWS V14.01,2013-09-12 08:57:00,
2013-09-12 03:59:00,70.3,69.1,29.81,SW,235,0.0,0.0,96,0.00,,---,0.01,VWS V14.01,2013-09-12 08:59:00,
2013-09-12 04:01:00,70.3,69.1,29.81,SW,235,0.0,0.0,96,0.00,,---,0.01,VWS V14.01,2013-09-12 09:01:00,
2013-09-12 04:02:00,70.3,69.1,29.81,SW,235,0.0,0.0,96,0.00,,---,0.01,VWS V14.01,2013-09-12 09:02:00,
2013-09-12 04:03:00,70.3,69.1,29.81,SW,235,0.0,0.0,96,0.00,,---,0.01,VWS V14.01,2013-09-12 09:03:00,
2013-09-12 04:04:00,70.3,69.1,29.81,SW,235,0.0,0.0,96,0.00,,---,0.01,VWS V14.01,2013-09-12 09:04:00,
2013-09-12 04:07:00,70.3,69.1,29.81,SW,235,0.0,0.0,96,0.00,,---,0.01,VWS V14.01,2013-09-12 09:07:00,
2013-09-12 04:08:00,70.3,69.1,29.81,SW,235,0.0,0.0,96,0.00,,---,0.01,VWS V14.01,2013-09-12 09:08:00,
2013-09-12 04:09:00,70.3,69.1,29.81,SW,235,0.0,0.0,96,0.00,,---,0.01,VWS V14.01,2013-09-12 09:09:00,
2013-09-12 04:10:00,70.3,69.1,29.81,SW,235,0.0,0.0,96,0.00,,---,0.01,VWS V14.01,2013-09-12 09:10:00,
2013-09-12 04:12:00,70.3,69.1,29.81,SW,235,0.0,0.0,96,0.00,,---,0.01,VWS V14.01,2013-09-12 09:12:00,
2013-09-12 04:13:00,70.1,68.9,29.81,SW,235,0.0,0.0,96,0.00,,---,0.01,VWS V14.01,2013-09-12 09:13:00,
2013-09-12 04:15:00,70.1,68.9,29.82,SW,235,0.0,0.0,96,0.00,,---,0.01,VWS V14.01,2013-09-12 09:15:00,
2013-09-12 04:17:00,70.1,68.9,29.82,SW,235,0.0,0.0,96,0.00,,---,0.01,VWS V14.01,2013-09-12 09:17:00,
2013-09-12 04:19:00,70.1,68.9,29.82,South,177,0.0,0.0,96,0.00,,---,0.01,VWS V14.01,2013-09-12 09:19:00,
2013-09-12 04:20:00,70.1,68.9,29.82,South,177,0.0,1.0,96,0.00,,---,0.01,VWS V14.01,2013-09-12 09:20:00,
2013-09-12 04:24:00,70.1,68.9,29.82,South,177,0.0,0.0,96,0.00,,---,0.01,VWS V14.01,2013-09-12 09:24:00,
2013-09-12 04:25:00,70.1,68.9,29.82,South,177,0.0,0.0,96,0.00,,---,0.01,VWS V14.01,2013-09-12 09:25:00,
2013-09-12 04:27:00,70.1,68.9,29.82,South,177,0.0,0.0,96,0.00,,---,0.01,VWS V14.01,2013-09-12 09:27:00,
2013-09-12 04:28:00,70.1,68.9,29.82,South,177,0.0,0.0,96,0.00,,---,0.01,VWS V14.01,2013-09-12 09:28:00,
2013-09-12 04:30:00,70.1,68.9,29.82,South,177,0.0,0.0,96,0.00,,---,0.01,VWS V14.01,2013-09-12 09:30:00,
2013-09-12 04:32:00,70.1,68.9,29.82,South,177,0.0,0.0,96,0.00,,---,0.01,VWS V14.01,2013-09-12 09:32:00,
2013-09-12 04:35:00,70.1,68.9,29.82,South,177,0.0,1.0,96,0.00,,---,0.01,VWS V14.01,2013-09-12 09:35:00,
2013-09-12 04:36:00,70.1,68.9,29.82,South,177,0.0,0.0,96,0.00,,---,0.01,VWS V14.01,2013-09-12 09:36:00,
2013-09-12 04:37:00,70.1,68.9,29.82,South,177,0.0,1.0,96,0.00,,---,0.01,VWS V14.01,2013-09-12 09:37:00,
2013-09-12 04:39:00,70.1,68.9,29.82,South,177,0.0,0.0,96,0.00,,---,0.01,VWS V14.01,2013-09-12 09:39:00,
2013-09-12 04:40:00,70.1,68.9,29.82,South,177,0.0,0.0,96,0.00,,---,0.01,VWS V14.01,2013-09-12 09:40:00,
2013-09-12 04:41:00,70.1,68.9,29.82,South,177,0.0,0.0,96,0.00,,---,0.01,VWS V14.01,2013-09-12 09:41:00,
2013-09-12 04:43:00,70.1,68.9,29.82,South,177,0.0,0.0,96,0.00,,---,0.01,VWS V14.01,2013-09-12 09:43:00,
2013-09-12 04:45:00,70.1,68.9,29.83,South,177,0.0,0.0,96,0.00,,---,0.01,VWS V14.01,2013-09-12 09:45:00,
2013-09-12 04:46:00,70.1,68.9,29.83,South,177,0.0,0.0,96,0.00,,---,0.01,VWS V14.01,2013-09-12 09:46:00,
2013-09-12 04:48:00,70.1,68.9,29.83,South,177,0.0,0.0,96,0.00,,---,0.01,VWS V14.01,2013-09-12 09:48:00,
2013-09-12 04:49:00,69.9,68.7,29.83,South,177,0.0,0.0,96,0.00,,---,0.01,VWS V14.01,2013-09-12 09:49:00,
2013-09-12 04:51:00,69.9,68.7,29.83,South,177,0.0,0.0,96,0.00,,---,0.01,VWS V14.01,2013-09-12 09:51:00,
2013-09-12 04:52:00,69.9,68.7,29.83,South,177,0.0,0.0,96,0.00,,---,0.01,VWS V14.01,2013-09-12 09:52:00,
2013-09-12 04:54:00,69.9,68.7,29.83,South,177,0.0,0.0,96,0.00,,---,0.01,VWS V14.01,2013-09-12 09:54:00,
2013-09-12 04:55:00,69.9,68.7,29.83,South,177,0.0,0.0,96,0.00,,---,0.01,VWS V14.01,2013-09-12 09:55:00,
2013-09-12 04:57:00,69.8,68.6,29.83,South,177,0.0,0.0,96,0.00,,---,0.01,VWS V14.01,2013-09-12 09:57:00,
2013-09-12 04:59:00,69.8,68.6,29.83,South,176,0.0,0.0,96,0.00,,---,0.01,VWS V14.01,2013-09-12 09:59:00,
2013-09-12 05:00:00,69.8,68.6,29.83,South,176,0.0,0.0,96,0.00,,---,0.01,VWS V14.01,2013-09-12 10:00:00,
2013-09-12 05:01:00,69.8,68.6,29.83,South,176,0.0,0.0,96,0.00,,---,0.01,VWS V14.01,2013-09-12 10:01:00,
2013-09-12 05:04:00,69.8,68.6,29.83,South,176,0.0,0.0,96,0.00,,---,0.01,VWS V14.01,2013-09-12 10:04:00,
2013-09-12 05:05:00,69.6,68.4,29.83,South,176,0.0,0.0,96,0.00,,---,0.01,VWS V14.01,2013-09-12 10:05:00,
2013-09-12 05:07:00,69.6,68.4,29.83,South,176,0.0,0.0,96,0.00,,---,0.01,VWS V14.01,2013-09-12 10:07:00,
2013-09-12 05:09:00,69.6,68.4,29.83,South,176,0.0,0.0,96,0.00,,---,0.01,VWS V14.01,2013-09-12 10:09:00,
2013-09-12 05:10:00,69.6,68.4,29.83,South,176,0.0,0.0,96,0.00,,---,0.01,VWS V14.01,2013-09-12 10:10:00,
2013-09-12 05:11:00,69.6,68.4,29.83,South,176,0.0,0.0,96,0.00,,---,0.01,VWS V14.01,2013-09-12 10:11:00,
2013-09-12 05:12:00,69.6,68.4,29.83,South,176,0.0,0.0,96,0.00,,---,0.01,VWS V14.01,2013-09-12 10:12:00,
2013-09-12 05:14:00,69.6,68.4,29.83,South,176,0.0,0.0,96,0.00,,---,0.01,VWS V14.01,2013-09-12 10:14:00,
2013-09-12 05:15:00,69.6,68.4,29.83,South,176,0.0,0.0,96,0.00,,---,0.01,VWS V14.01,2013-09-12 10:15:00,
2013-09-12 05:16:00,69.6,68.4,29.83,South,176,0.0,0.0,96,0.00,,---,0.01,VWS V14.01,2013-09-12 10:16:00,
2013-09-12 05:17:00,69.6,68.4,29.83,South,176,0.0,0.0,96,0.00,,---,0.01,VWS V14.01,2013-09-12 10:17:00,
2013-09-12 05:19:00,69.4,68.2,29.83,South,176,0.0,0.0,96,0.00,,---,0.01,VWS V14.01,2013-09-12 10:19:00,
2013-09-12 05:20:00,69.4,68.2,29.83,South,176,0.0,0.0,96,0.00,,---,0.01,VWS V14.01,2013-09-12 10:20:00,
2013-09-12 05:22:00,69.4,68.2,29.83,South,176,0.0,0.0,96,0.00,,---,0.01,VWS V14.01,2013-09-12 10:22:00,
2013-09-12 05:23:00,69.4,68.2,29.83,South,176,0.0,0.0,96,0.00,,---,0.01,VWS V14.01,2013-09-12 10:23:00,
2013-09-12 05:24:00,69.4,68.2,29.83,South,176,0.0,0.0,96,0.00,,---,0.01,VWS V14.01,2013-09-12 10:24:00,
2013-09-12 05:26:00,69.4,68.2,29.83,South,176,0.0,0.0,96,0.00,,---,0.01,VWS V14.01,2013-09-12 10:26:00,
2013-09-12 05:28:00,69.4,68.5,29.83,South,176,0.0,0.0,97,0.00,,---,0.01,VWS V14.01,2013-09-12 10:28:00,
2013-09-12 05:29:00,69.4,68.5,29.84,South,176,0.0,0.0,97,0.00,,---,0.01,VWS V14.01,2013-09-12 10:29:00,
2013-09-12 05:31:00,69.3,68.4,29.84,South,176,0.0,0.0,97,0.00,,---,0.01,VWS V14.01,2013-09-12 10:31:00,
2013-09-12 05:33:00,69.3,68.4,29.84,South,176,0.0,0.0,97,0.00,,---,0.01,VWS V14.01,2013-09-12 10:33:00,
2013-09-12 05:34:00,69.3,68.4,29.84,South,176,0.0,0.0,97,0.00,,---,0.01,VWS V14.01,2013-09-12 10:34:00,
2013-09-12 05:36:00,69.3,68.4,29.84,South,176,0.0,0.0,97,0.00,,---,0.01,VWS V14.01,2013-09-12 10:36:00,
2013-09-12 05:38:00,69.3,68.4,29.84,South,176,0.0,0.0,97,0.00,,---,0.01,VWS V14.01,2013-09-12 10:38:00,
2013-09-12 05:40:00,69.3,68.4,29.84,South,176,0.0,0.0,97,0.00,,---,0.01,VWS V14.01,2013-09-12 10:40:00,
2013-09-12 05:41:00,69.3,68.4,29.84,South,176,0.0,0.0,97,0.00,,---,0.01,VWS V14.01,2013-09-12 10:41:00,
2013-09-12 05:42:00,69.3,68.4,29.84,South,176,0.0,0.0,97,0.00,,---,0.01,VWS V14.01,2013-09-12 10:42:00,
2013-09-12 05:44:00,69.3,68.4,29.84,South,176,0.0,0.0,97,0.00,,---,0.01,VWS V14.01,2013-09-12 10:44:00,
2013-09-12 05:45:00,69.3,68.4,29.84,South,176,0.0,0.0,97,0.00,,---,0.01,VWS V14.01,2013-09-12 10:45:00,
2013-09-12 05:46:00,69.3,68.4,29.84,South,176,0.0,0.0,97,0.00,,---,0.01,VWS V14.01,2013-09-12 10:46:00,
2013-09-12 05:47:00,69.3,68.4,29.84,South,176,0.0,0.0,97,0.00,,---,0.01,VWS V14.01,2013-09-12 10:47:00,
2013-09-12 05:48:00,69.3,68.4,29.84,South,176,0.0,0.0,97,0.00,,---,0.01,VWS V14.01,2013-09-12 10:48:00,
2013-09-12 05:49:00,69.3,68.4,29.84,South,176,0.0,0.0,97,0.00,,---,0.01,VWS V14.01,2013-09-12 10:49:00,
2013-09-12 05:50:00,69.3,68.4,29.84,South,176,0.0,0.0,97,0.00,,---,0.01,VWS V14.01,2013-09-12 10:50:00,
2013-09-12 05:52:00,69.3,68.4,29.84,South,176,0.0,0.0,97,0.00,,---,0.01,VWS V14.01,2013-09-12 10:52:00,
2013-09-12 05:53:00,69.3,68.4,29.84,South,176,0.0,0.0,97,0.00,,---,0.01,VWS V14.01,2013-09-12 10:53:00,
2013-09-12 05:54:00,69.3,68.4,29.84,South,176,0.0,0.0,97,0.00,,---,0.01,VWS V14.01,2013-09-12 10:54:00,
2013-09-12 05:55:00,69.3,68.4,29.84,South,176,0.0,0.0,97,0.00,,---,0.01,VWS V14.01,2013-09-12 10:55:00,
2013-09-12 05:56:00,69.1,68.2,29.84,South,176,0.0,0.0,97,0.00,,---,0.01,VWS V14.01,2013-09-12 10:56:00,
2013-09-12 05:57:00,69.1,68.2,29.84,South,176,0.0,0.0,97,0.00,,---,0.01,VWS V14.01,2013-09-12 10:57:00,
2013-09-12 05:58:00,69.1,68.2,29.84,South,176,0.0,0.0,97,0.00,,---,0.01,VWS V14.01,2013-09-12 10:58:00,
2013-09-12 06:00:00,69.1,68.2,29.84,South,176,0.0,0.0,97,0.00,,---,0.01,VWS V14.01,2013-09-12 11:00:00,
2013-09-12 06:02:00,69.1,68.2,29.84,South,176,0.0,0.0,97,0.00,,---,0.01,VWS V14.01,2013-09-12 11:02:00,
2013-09-12 06:03:00,69.1,68.2,29.84,South,176,0.0,0.0,97,0.00,,---,0.01,VWS V14.01,2013-09-12 11:03:00,
2013-09-12 06:05:00,69.1,68.2,29.84,South,176,0.0,1.0,97,0.00,,---,0.01,VWS V14.01,2013-09-12 11:05:00,
2013-09-12 06:06:00,69.1,68.2,29.84,South,176,0.0,0.0,97,0.00,,---,0.01,VWS V14.01,2013-09-12 11:06:00,
2013-09-12 06:08:00,68.9,68.0,29.84,South,176,0.0,0.0,97,0.00,,---,0.01,VWS V14.01,2013-09-12 11:08:00,
2013-09-12 06:09:00,68.9,68.0,29.84,South,176,0.0,0.0,97,0.00,,---,0.01,VWS V14.01,2013-09-12 11:09:00,
2013-09-12 06:11:00,68.9,67.7,29.84,South,177,0.0,2.0,96,0.00,,---,0.01,VWS V14.01,2013-09-12 11:11:00,
2013-09-12 06:12:00,68.9,67.7,29.84,South,177,0.0,0.0,96,0.00,,---,0.01,VWS V14.01,2013-09-12 11:12:00,
2013-09-12 06:15:00,68.9,67.7,29.84,South,177,0.0,0.0,96,0.00,,---,0.01,VWS V14.01,2013-09-12 11:15:00,
2013-09-12 06:17:00,68.8,67.6,29.84,South,176,0.0,0.0,96,0.00,,---,0.01,VWS V14.01,2013-09-12 11:17:00,
2013-09-12 06:18:00,68.8,67.6,29.84,South,176,0.0,0.0,96,0.00,,---,0.01,VWS V14.01,2013-09-12 11:18:00,
2013-09-12 06:19:00,68.8,67.6,29.84,South,176,0.0,0.0,96,0.00,,---,0.01,VWS V14.01,2013-09-12 11:19:00,
2013-09-12 06:20:00,68.8,67.6,29.84,South,177,0.0,1.0,96,0.00,,---,0.01,VWS V14.01,2013-09-12 11:20:00,
2013-09-12 06:23:00,68.8,67.6,29.84,NNW,330,0.0,0.0,96,0.00,,---,0.01,VWS V14.01,2013-09-12 11:23:00,
2013-09-12 06:24:00,68.8,67.6,29.84,NNW,330,0.0,1.0,96,0.00,,---,0.01,VWS V14.01,2013-09-12 11:24:00,
2013-09-12 06:27:00,68.8,67.6,29.84,NNW,330,0.0,0.0,96,0.00,,---,0.01,VWS V14.01,2013-09-12 11:27:00,
2013-09-12 06:28:00,68.8,67.6,29.84,NNW,330,0.0,0.0,96,0.00,,---,0.01,VWS V14.01,2013-09-12 11:28:00,
2013-09-12 06:30:00,68.8,67.6,29.84,NNW,330,0.0,0.0,96,0.00,,---,0.01,VWS V14.01,2013-09-12 11:30:00,
2013-09-12 06:31:00,68.6,67.4,29.84,NNW,330,0.0,0.0,96,0.00,,---,0.01,VWS V14.01,2013-09-12 11:31:00,
2013-09-12 06:33:00,68.6,67.4,29.84,NNW,330,0.0,0.0,96,0.00,,---,0.01,VWS V14.01,2013-09-12 11:33:00,
2013-09-12 06:35:00,68.6,67.4,29.84,NNW,330,0.0,0.0,96,0.00,,---,0.01,VWS V14.01,2013-09-12 11:35:00,
2013-09-12 06:36:00,68.6,67.4,29.84,NNW,330,0.0,0.0,96,0.00,,---,0.01,VWS V14.01,2013-09-12 11:36:00,
2013-09-12 06:38:00,68.6,67.4,29.84,NNW,330,0.0,1.0,96,0.00,,---,0.01,VWS V14.01,2013-09-12 11:38:00,
2013-09-12 06:39:00,68.6,67.4,29.84,NNW,330,0.0,1.0,96,0.00,,---,0.01,VWS V14.01,2013-09-12 11:39:00,
2013-09-12 06:42:00,68.6,67.4,29.84,NNW,330,0.0,0.0,96,0.00,,---,0.01,VWS V14.01,2013-09-12 11:42:00,
2013-09-12 06:43:00,68.6,67.4,29.84,NNW,330,0.0,0.0,96,0.00,,---,0.01,VWS V14.01,2013-09-12 11:43:00,
2013-09-12 06:46:00,68.6,67.4,29.84,NNW,330,0.0,1.0,96,0.00,,---,0.01,VWS V14.01,2013-09-12 11:46:00,
2013-09-12 06:47:00,68.6,67.4,29.84,NNW,330,0.0,0.0,96,0.00,,---,0.01,VWS V14.01,2013-09-12 11:47:00,
2013-09-12 06:48:00,68.6,67.4,29.84,NNW,330,0.0,0.0,96,0.00,,---,0.01,VWS V14.01,2013-09-12 11:48:00,
2013-09-12 06:49:00,68.6,67.4,29.84,NNW,330,1.0,1.0,96,0.00,,---,0.01,VWS V14.01,2013-09-12 11:49:00,
2013-09-12 06:51:00,68.6,67.4,29.84,NNW,330,0.0,0.0,96,0.00,,---,0.01,VWS V14.01,2013-09-12 11:51:00,
2013-09-12 06:53:00,68.6,67.4,29.84,NNW,330,0.0,1.0,96,0.00,,---,0.01,VWS V14.01,2013-09-12 11:53:00,
2013-09-12 06:55:00,68.6,67.4,29.84,NNW,330,0.0,0.0,96,0.00,,---,0.01,VWS V14.01,2013-09-12 11:55:00,
2013-09-12 06:56:00,68.6,67.4,29.84,NNW,330,0.0,0.0,96,0.00,,---,0.01,VWS V14.01,2013-09-12 11:56:00,
2013-09-12 06:58:00,68.4,66.9,29.84,North,0,0.0,0.0,95,0.00,,---,0.01,VWS V14.01,2013-09-12 11:58:00,
2013-09-12 07:01:00,68.4,66.9,29.85,North,0,0.0,0.0,95,0.00,,---,0.01,VWS V14.01,2013-09-12 12:01:00,
2013-09-12 07:02:00,68.4,66.9,29.85,North,0,0.0,0.0,95,0.00,,---,0.01,VWS V14.01,2013-09-12 12:02:00,
2013-09-12 07:03:00,68.4,66.9,29.85,North,0,0.0,0.0,95,0.00,,---,0.01,VWS V14.01,2013-09-12 12:03:00,
2013-09-12 07:05:00,68.4,66.9,29.85,North,0,0.0,0.0,95,0.00,,---,0.01,VWS V14.01,2013-09-12 12:05:00,
2013-09-12 07:07:00,68.4,66.9,29.85,North,0,0.0,0.0,95,0.00,,---,0.01,VWS V14.01,2013-09-12 12:07:00,
2013-09-12 07:08:00,68.4,66.9,29.85,North,0,0.0,1.0,95,0.00,,---,0.01,VWS V14.01,2013-09-12 12:08:00,
2013-09-12 07:09:00,68.3,66.8,29.85,North,0,0.0,0.0,95,0.00,,---,0.01,VWS V14.01,2013-09-12 12:09:00,
2013-09-12 07:11:00,68.3,66.8,29.85,North,0,0.0,1.0,95,0.00,,---,0.01,VWS V14.01,2013-09-12 12:11:00,
2013-09-12 07:14:00,68.3,66.5,29.85,North,0,0.0,0.0,94,0.00,,---,0.01,VWS V14.01,2013-09-12 12:14:00,
2013-09-12 07:15:00,68.3,66.5,29.85,North,0,1.0,1.0,94,0.00,,---,0.01,VWS V14.01,2013-09-12 12:15:00,
2013-09-12 07:17:00,68.3,66.5,29.85,North,0,0.0,0.0,94,0.00,,---,0.01,VWS V14.01,2013-09-12 12:17:00,
2013-09-12 07:18:00,68.3,66.2,29.85,North,0,0.0,0.0,93,0.00,,---,0.01,VWS V14.01,2013-09-12 12:18:00,
2013-09-12 07:19:00,68.3,66.2,29.85,North,0,0.0,1.0,93,0.00,,---,0.01,VWS V14.01,2013-09-12 12:19:00,
2013-09-12 07:21:00,68.3,66.2,29.85,North,0,0.0,0.0,93,0.00,,---,0.01,VWS V14.01,2013-09-12 12:21:00,
2013-09-12 07:23:00,68.3,66.2,29.85,North,0,0.0,0.0,93,0.00,,---,0.01,VWS V14.01,2013-09-12 12:23:00,
2013-09-12 07:24:00,68.1,66.0,29.85,North,0,0.0,0.0,93,0.00,,---,0.01,VWS V14.01,2013-09-12 12:24:00,
2013-09-12 07:25:00,68.1,66.0,29.85,North,0,0.0,0.0,93,0.00,,---,0.01,VWS V14.01,2013-09-12 12:25:00,
2013-09-12 07:27:00,68.1,65.7,29.85,North,0,0.0,0.0,92,0.00,,---,0.01,VWS V14.01,2013-09-12 12:27:00,
2013-09-12 07:29:00,68.1,65.7,29.85,North,0,0.0,1.0,92,0.00,,---,0.01,VWS V14.01,2013-09-12 12:29:00,
2013-09-12 07:30:00,68.1,65.7,29.85,North,0,0.0,0.0,92,0.00,,---,0.01,VWS V14.01,2013-09-12 12:30:00,
2013-09-12 07:32:00,68.1,65.7,29.85,North,0,0.0,1.0,92,0.00,,---,0.01,VWS V14.01,2013-09-12 12:32:00,
2013-09-12 07:33:00,68.1,65.7,29.85,North,0,0.0,0.0,92,0.00,,---,0.01,VWS V14.01,2013-09-12 12:33:00,
2013-09-12 07:35:00,68.1,65.4,29.85,North,0,0.0,0.0,91,0.00,,---,0.01,VWS V14.01,2013-09-12 12:35:00,
2013-09-12 07:36:00,68.1,65.4,29.85,North,0,0.0,0.0,91,0.00,,---,0.01,VWS V14.01,2013-09-12 12:36:00,
2013-09-12 07:39:00,68.1,65.4,29.85,North,0,0.0,1.0,91,0.00,,---,0.01,VWS V14.01,2013-09-12 12:39:00,
2013-09-12 07:41:00,68.1,65.1,29.85,North,0,0.0,0.0,90,0.00,,---,0.01,VWS V14.01,2013-09-12 12:41:00,
2013-09-12 07:42:00,68.1,65.1,29.85,North,0,0.0,0.0,90,0.00,,---,0.01,VWS V14.01,2013-09-12 12:42:00,
2013-09-12 07:44:00,68.3,65.3,29.86,North,0,0.0,0.0,90,0.00,,---,0.01,VWS V14.01,2013-09-12 12:44:00,
2013-09-12 07:45:00,68.3,65.3,29.86,North,0,0.0,0.0,90,0.00,,---,0.01,VWS V14.01,2013-09-12 12:45:00,
2013-09-12 07:46:00,68.3,65.3,29.86,North,0,0.0,1.0,90,0.00,,---,0.01,VWS V14.01,2013-09-12 12:46:00,
2013-09-12 07:47:00,68.3,64.9,29.86,North,0,2.0,2.0,89,0.00,,---,0.01,VWS V14.01,2013-09-12 12:47:00,
2013-09-12 07:50:00,68.1,64.4,29.86,North,0,0.0,1.0,88,0.00,,---,0.01,VWS V14.01,2013-09-12 12:50:00,
2013-09-12 07:51:00,68.1,64.4,29.86,North,0,0.0,0.0,88,0.00,,---,0.01,VWS V14.01,2013-09-12 12:51:00,
2013-09-12 07:52:00,68.1,64.4,29.86,North,0,0.0,0.0,88,0.00,,---,0.01,VWS V14.01,2013-09-12 12:52:00,
2013-09-12 07:54:00,68.1,64.4,29.86,North,0,0.0,0.0,88,0.00,,---,0.01,VWS V14.01,2013-09-12 12:54:00,
2013-09-12 07:55:00,68.3,64.6,29.86,North,0,0.0,0.0,88,0.00,,---,0.01,VWS V14.01,2013-09-12 12:55:00,
2013-09-12 07:56:00,68.3,64.3,29.86,North,0,0.0,0.0,87,0.00,,---,0.01,VWS V14.01,2013-09-12 12:56:00,
2013-09-12 07:57:00,68.3,64.3,29.86,North,0,0.0,0.0,87,0.00,,---,0.01,VWS V14.01,2013-09-12 12:57:00,
2013-09-12 08:00:00,68.3,64.3,29.85,North,0,0.0,0.0,87,0.00,,---,0.01,VWS V14.01,2013-09-12 13:00:00,
2013-09-12 08:01:00,68.3,64.3,29.85,North,0,0.0,0.0,87,0.00,,---,0.01,VWS V14.01,2013-09-12 13:01:00,
2013-09-12 08:02:00,68.3,64.0,29.85,North,0,0.0,0.0,86,0.00,,---,0.01,VWS V14.01,2013-09-12 13:02:00,
2013-09-12 08:03:00,68.3,64.0,29.85,North,0,0.0,0.0,86,0.00,,---,0.01,VWS V14.01,2013-09-12 13:03:00,
2013-09-12 08:07:00,68.4,64.1,29.85,North,0,0.0,0.0,86,0.00,,---,0.01,VWS V14.01,2013-09-12 13:07:00,
2013-09-12 08:08:00,68.4,64.1,29.85,North,0,0.0,0.0,86,0.00,,---,0.01,VWS V14.01,2013-09-12 13:08:00,
2013-09-12 08:09:00,68.4,64.1,29.85,North,0,0.0,0.0,86,0.00,,---,0.01,VWS V14.01,2013-09-12 13:09:00,
2013-09-12 08:10:00,68.6,64.2,29.85,North,0,0.0,0.0,86,0.00,,---,0.01,VWS V14.01,2013-09-12 13:10:00,
2013-09-12 08:13:00,68.6,63.9,29.85,North,0,0.0,0.0,85,0.00,,---,0.01,VWS V14.01,2013-09-12 13:13:00,
2013-09-12 08:15:00,68.6,63.6,29.86,North,0,0.0,0.0,84,0.00,,---,0.01,VWS V14.01,2013-09-12 13:15:00,
2013-09-12 08:18:00,68.6,63.6,29.86,North,0,0.0,0.0,84,0.00,,---,0.01,VWS V14.01,2013-09-12 13:18:00,
2013-09-12 08:20:00,68.6,63.2,29.86,North,0,0.0,0.0,83,0.00,,---,0.01,VWS V14.01,2013-09-12 13:20:00,
2013-09-12 08:21:00,68.6,63.2,29.86,North,0,0.0,0.0,83,0.00,,---,0.01,VWS V14.01,2013-09-12 13:21:00,
2013-09-12 08:23:00,68.8,63.4,29.86,North,0,0.0,0.0,83,0.00,,---,0.01,VWS V14.01,2013-09-12 13:23:00,
2013-09-12 08:24:00,68.8,63.4,29.86,North,0,0.0,0.0,83,0.00,,---,0.01,VWS V14.01,2013-09-12 13:24:00,
2013-09-12 08:25:00,68.8,63.4,29.86,North,0,0.0,0.0,83,0.00,,---,0.01,VWS V14.01,2013-09-12 13:25:00,
2013-09-12 08:26:00,68.8,63.4,29.86,North,0,0.0,0.0,83,0.00,,---,0.01,VWS V14.01,2013-09-12 13:26:00,
2013-09-12 08:29:00,68.9,63.5,29.85,North,0,0.0,0.0,83,0.00,,---,0.01,VWS V14.01,2013-09-12 13:29:00,
2013-09-12 08:30:00,68.9,63.5,29.85,North,0,0.0,1.0,83,0.00,,---,0.01,VWS V14.01,2013-09-12 13:30:00,
2013-09-12 08:31:00,68.9,63.2,29.85,North,0,0.0,0.0,82,0.00,,---,0.01,VWS V14.01,2013-09-12 13:31:00,
2013-09-12 08:32:00,68.9,63.2,29.85,North,0,0.0,0.0,82,0.00,,---,0.01,VWS V14.01,2013-09-12 13:32:00,
2013-09-12 08:33:00,68.9,63.2,29.85,North,0,0.0,1.0,82,0.00,,---,0.01,VWS V14.01,2013-09-12 13:33:00,
2013-09-12 08:37:00,68.9,62.8,29.85,North,0,0.0,0.0,81,0.00,,---,0.01,VWS V14.01,2013-09-12 13:37:00,
2013-09-12 08:38:00,69.1,63.0,29.85,North,0,0.0,0.0,81,0.00,,---,0.01,VWS V14.01,2013-09-12 13:38:00,
2013-09-12 08:40:00,69.1,63.0,29.85,North,0,0.0,0.0,81,0.00,,---,0.01,VWS V14.01,2013-09-12 13:40:00,
2013-09-12 08:43:00,69.3,62.9,29.85,North,0,0.0,1.0,80,0.00,,---,0.01,VWS V14.01,2013-09-12 13:43:00,
2013-09-12 08:44:00,69.3,62.9,29.86,North,0,0.0,0.0,80,0.00,,---,0.01,VWS V14.01,2013-09-12 13:44:00,
2013-09-12 08:46:00,69.4,63.0,29.86,North,0,0.0,0.0,80,0.00,,---,0.01,VWS V14.01,2013-09-12 13:46:00,
2013-09-12 08:47:00,69.4,62.6,29.86,North,0,0.0,0.0,79,0.00,,---,0.01,VWS V14.01,2013-09-12 13:47:00,
2013-09-12 08:49:00,69.6,62.4,29.86,North,0,0.0,1.0,78,0.00,,---,0.01,VWS V14.01,2013-09-12 13:49:00,
2013-09-12 08:50:00,69.6,62.1,29.86,North,0,0.0,0.0,77,0.00,,---,0.01,VWS V14.01,2013-09-12 13:50:00,
2013-09-12 08:52:00,69.8,62.6,29.86,North,0,0.0,0.0,78,0.00,,---,0.01,VWS V14.01,2013-09-12 13:52:00,
2013-09-12 08:55:00,69.9,62.0,29.86,North,0,0.0,0.0,76,0.00,,---,0.01,VWS V14.01,2013-09-12 13:55:00,
2013-09-12 08:56:00,70.1,62.2,29.86,North,0,0.0,0.0,76,0.00,,---,0.01,VWS V14.01,2013-09-12 13:56:00,
2013-09-12 08:57:00,70.1,62.6,29.86,North,0,0.0,0.0,77,0.00,,---,0.01,VWS V14.01,2013-09-12 13:57:00,
2013-09-12 09:00:00,70.3,62.0,29.86,North,0,0.0,2.0,75,0.00,,---,0.01,VWS V14.01,2013-09-12 14:00:00,
2013-09-12 09:01:00,70.3,62.0,29.86,North,0,0.0,1.0,75,0.00,,---,0.01,VWS V14.01,2013-09-12 14:01:00,
2013-09-12 09:02:00,70.3,62.0,29.86,North,0,0.0,0.0,75,0.00,,---,0.01,VWS V14.01,2013-09-12 14:02:00,
2013-09-12 09:03:00,70.4,61.7,29.86,North,0,0.0,0.0,74,0.00,,---,0.01,VWS V14.01,2013-09-12 14:03:00,
2013-09-12 09:05:00,70.6,61.9,29.86,North,0,0.0,0.0,74,0.00,,---,0.01,VWS V14.01,2013-09-12 14:05:00,
2013-09-12 09:07:00,70.6,61.9,29.86,North,0,3.0,3.0,74,0.00,,---,0.01,VWS V14.01,2013-09-12 14:07:00,
2013-09-12 09:08:00,70.8,61.7,29.86,North,0,0.0,3.0,73,0.00,,---,0.01,VWS V14.01,2013-09-12 14:08:00,
2013-09-12 09:10:00,70.8,61.3,29.86,North,0,1.0,1.0,72,0.00,,---,0.01,VWS V14.01,2013-09-12 14:10:00,
2013-09-12 09:12:00,70.9,61.4,29.86,North,0,0.0,0.0,72,0.00,,---,0.01,VWS V14.01,2013-09-12 14:12:00,
2013-09-12 09:13:00,70.9,61.4,29.86,North,0,0.0,0.0,72,0.00,,---,0.01,VWS V14.01,2013-09-12 14:13:00,
2013-09-12 09:15:00,71.1,61.2,29.85,North,0,0.0,0.0,71,0.00,,---,0.01,VWS V14.01,2013-09-12 14:15:00,
2013-09-12 09:16:00,71.1,61.2,29.85,North,0,0.0,0.0,71,0.00,,---,0.01,VWS V14.01,2013-09-12 14:16:00,
2013-09-12 09:17:00,71.1,61.2,29.85,North,0,0.0,0.0,71,0.00,,---,0.01,VWS V14.01,2013-09-12 14:17:00,
2013-09-12 09:18:00,71.1,60.8,29.85,North,0,0.0,2.0,70,0.00,,---,0.01,VWS V14.01,2013-09-12 14:18:00,
2013-09-12 09:19:00,71.1,60.0,29.85,North,0,0.0,1.0,68,0.00,,---,0.01,VWS V14.01,2013-09-12 14:19:00,
2013-09-12 09:21:00,71.1,60.4,29.85,North,0,0.0,0.0,69,0.00,,---,0.01,VWS V14.01,2013-09-12 14:21:00,
2013-09-12 09:22:00,71.1,60.4,29.85,North,0,0.0,0.0,69,0.00,,---,0.01,VWS V14.01,2013-09-12 14:22:00,
2013-09-12 09:23:00,71.1,60.4,29.85,North,0,0.0,0.0,69,0.00,,---,0.01,VWS V14.01,2013-09-12 14:23:00,
2013-09-12 09:24:00,71.3,60.6,29.85,North,0,0.0,0.0,69,0.00,,---,0.01,VWS V14.01,2013-09-12 14:24:00,
2013-09-12 09:26:00,71.3,60.6,29.85,North,0,0.0,0.0,69,0.00,,---,0.01,VWS V14.01,2013-09-12 14:26:00,
2013-09-12 09:28:00,71.3,60.6,29.86,North,0,0.0,0.0,69,0.00,,---,0.01,VWS V14.01,2013-09-12 14:28:00,
2013-09-12 09:29:00,71.5,59.6,29.86,North,0,0.0,1.0,66,0.00,,---,0.01,VWS V14.01,2013-09-12 14:29:00,
2013-09-12 09:30:00,71.5,60.0,29.86,North,0,0.0,0.0,67,0.00,,---,0.01,VWS V14.01,2013-09-12 14:30:00,
2013-09-12 09:31:00,71.5,59.6,29.86,North,0,0.0,1.0,66,0.00,,---,0.01,VWS V14.01,2013-09-12 14:31:00,
2013-09-12 09:34:00,71.6,58.8,29.86,North,0,1.0,1.0,64,0.00,,---,0.01,VWS V14.01,2013-09-12 14:34:00,
2013-09-12 09:35:00,71.6,58.3,29.86,North,0,0.0,1.0,63,0.00,,---,0.01,VWS V14.01,2013-09-12 14:35:00,
2013-09-12 09:36:00,71.5,57.4,29.86,North,0,0.0,0.0,61,0.00,,---,0.01,VWS V14.01,2013-09-12 14:36:00,
2013-09-12 09:38:00,71.6,57.5,29.86,North,0,0.0,0.0,61,0.00,,---,0.01,VWS V14.01,2013-09-12 14:38:00,
2013-09-12 09:39:00,71.6,57.5,29.86,North,0,0.0,0.0,61,0.00,,---,0.01,VWS V14.01,2013-09-12 14:39:00,
2013-09-12 09:40:00,71.6,58.3,29.86,North,0,0.0,0.0,63,0.00,,---,0.01,VWS V14.01,2013-09-12 14:40:00,
2013-09-12 09:41:00,71.6,58.8,29.86,North,0,0.0,0.0,64,0.00,,---,0.01,VWS V14.01,2013-09-12 14:41:00,
2013-09-12 09:43:00,71.8,59.4,29.85,North,0,0.0,0.0,65,0.00,,---,0.01,VWS V14.01,2013-09-12 14:43:00,
2013-09-12 09:45:00,72.1,60.1,29.85,North,0,0.0,0.0,66,0.00,,---,0.01,VWS V14.01,2013-09-12 14:45:00,
2013-09-12 09:46:00,72.3,59.9,29.85,North,0,0.0,0.0,65,0.00,,---,0.01,VWS V14.01,2013-09-12 14:46:00,
2013-09-12 09:48:00,72.7,60.7,29.85,North,0,0.0,0.0,66,0.00,,---,0.01,VWS V14.01,2013-09-12 14:48:00,
2013-09-12 09:51:00,73.2,59.9,29.85,North,0,0.0,0.0,63,0.00,,---,0.01,VWS V14.01,2013-09-12 14:51:00,
2013-09-12 09:52:00,73.3,59.5,29.85,North,0,0.0,0.0,62,0.00,,---,0.01,VWS V14.01,2013-09-12 14:52:00,
2013-09-12 09:54:00,73.5,59.7,29.85,North,0,0.0,0.0,62,0.00,,---,0.01,VWS V14.01,2013-09-12 14:54:00,
2013-09-12 09:57:00,74.2,59.9,29.85,North,0,0.0,1.0,61,0.00,,---,0.01,VWS V14.01,2013-09-12 14:57:00,
2013-09-12 09:58:00,74.2,59.9,29.85,North,0,0.0,0.0,61,0.00,,---,0.01,VWS V14.01,2013-09-12 14:58:00,
2013-09-12 10:00:00,74.4,57.2,29.85,North,0,0.0,0.0,55,0.00,,---,0.01,VWS V14.01,2013-09-12 15:00:00,
2013-09-12 10:03:00,74.6,56.9,29.85,East,81,0.0,0.0,54,0.00,,---,0.01,VWS V14.01,2013-09-12 15:03:00,
2013-09-12 10:05:00,74.9,57.7,29.85,East,81,0.0,0.0,55,0.00,,---,0.01,VWS V14.01,2013-09-12 15:05:00,
2013-09-12 10:06:00,74.9,57.7,29.85,East,81,0.0,0.0,55,0.00,,---,0.01,VWS V14.01,2013-09-12 15:06:00,
2013-09-12 10:08:00,75.3,58.5,29.85,East,81,0.0,0.0,56,0.00,,---,0.01,VWS V14.01,2013-09-12 15:08:00,
2013-09-12 10:09:00,75.3,59.0,29.85,East,81,0.0,1.0,57,0.00,,---,0.01,VWS V14.01,2013-09-12 15:09:00,
2013-09-12 10:11:00,75.4,56.6,29.85,East,81,0.0,0.0,52,0.00,,---,0.01,VWS V14.01,2013-09-12 15:11:00,
2013-09-12 10:12:00,75.4,56.6,29.85,East,81,0.0,0.0,52,0.00,,---,0.01,VWS V14.01,2013-09-12 15:12:00,
2013-09-12 10:14:00,75.6,57.8,29.84,East,81,0.0,0.0,54,0.00,,---,0.01,VWS V14.01,2013-09-12 15:14:00,
2013-09-12 10:15:00,75.8,57.5,29.84,East,81,0.0,0.0,53,0.00,,---,0.01,VWS V14.01,2013-09-12 15:15:00,
2013-09-12 10:16:00,75.8,56.4,29.84,East,81,0.0,0.0,51,0.00,,---,0.01,VWS V14.01,2013-09-12 15:16:00,
2013-09-12 10:17:00,75.8,56.9,29.84,East,81,0.0,0.0,52,0.00,,---,0.01,VWS V14.01,2013-09-12 15:17:00,
2013-09-12 10:18:00,76.0,58.7,29.84,East,81,0.0,0.0,55,0.00,,---,0.01,VWS V14.01,2013-09-12 15:18:00,
2013-09-12 10:20:00,76.0,56.6,29.84,East,81,0.0,1.0,51,0.00,,---,0.01,VWS V14.01,2013-09-12 15:20:00,
2013-09-12 10:21:00,76.0,56.6,29.84,East,81,0.0,0.0,51,0.00,,---,0.01,VWS V14.01,2013-09-12 15:21:00,
2013-09-12 10:22:00,76.0,57.7,29.84,East,81,0.0,0.0,53,0.00,,---,0.01,VWS V14.01,2013-09-12 15:22:00,
2013-09-12 10:23:00,76.1,57.8,29.84,East,81,0.0,0.0,53,0.00,,---,0.01,VWS V14.01,2013-09-12 15:23:00,
2013-09-12 10:25:00,76.3,59.0,29.84,East,82,0.0,1.0,55,0.00,,---,0.01,VWS V14.01,2013-09-12 15:25:00,
2013-09-12 10:28:00,76.5,58.1,29.84,East,83,0.0,0.0,53,0.00,,---,0.01,VWS V14.01,2013-09-12 15:28:00,
2013-09-12 10:30:00,76.7,56.7,29.85,East,98,0.0,1.0,50,0.00,,---,0.01,VWS V14.01,2013-09-12 15:30:00,
2013-09-12 10:31:00,76.7,57.2,29.85,East,99,0.0,0.0,51,0.00,,---,0.01,VWS V14.01,2013-09-12 15:31:00,
2013-09-12 10:35:00,76.8,57.3,29.85,East,99,0.0,0.0,51,0.00,,---,0.01,VWS V14.01,2013-09-12 15:35:00,
2013-09-12 10:36:00,77.2,57.7,29.85,East,99,0.0,0.0,51,0.00,,---,0.01,VWS V14.01,2013-09-12 15:36:00,
2013-09-12 10:37:00,77.4,57.3,29.85,East,99,0.0,0.0,50,0.00,,---,0.01,VWS V14.01,2013-09-12 15:37:00,
2013-09-12 10:39:00,77.4,57.3,29.85,East,99,0.0,0.0,50,0.00,,---,0.01,VWS V14.01,2013-09-12 15:39:00,
2013-09-12 10:41:00,77.6,58.1,29.85,East,99,0.0,0.0,51,0.00,,---,0.01,VWS V14.01,2013-09-12 15:41:00,
2013-09-12 10:43:00,77.9,59.4,29.85,East,99,0.0,0.0,53,0.00,,---,0.01,VWS V14.01,2013-09-12 15:43:00,
2013-09-12 10:47:00,78.3,59.8,29.85,East,99,0.0,0.0,53,0.00,,---,0.01,VWS V14.01,2013-09-12 15:47:00,
2013-09-12 10:48:00,78.5,58.9,29.85,East,99,0.0,1.0,51,0.00,,---,0.01,VWS V14.01,2013-09-12 15:48:00,
2013-09-12 10:49:00,78.6,59.0,29.85,SSW,207,0.0,0.0,51,0.00,,---,0.01,VWS V14.01,2013-09-12 15:49:00,
2013-09-12 10:52:00,78.6,59.5,29.85,SSW,207,0.0,0.0,52,0.00,,---,0.01,VWS V14.01,2013-09-12 15:52:00,
2013-09-12 10:53:00,78.8,59.7,29.85,SSW,207,0.0,0.0,52,0.00,,---,0.01,VWS V14.01,2013-09-12 15:53:00,
2013-09-12 10:56:00,78.8,59.2,29.85,SSW,207,0.0,0.0,51,0.00,,---,0.01,VWS V14.01,2013-09-12 15:56:00,
2013-09-12 10:58:00,78.8,60.2,29.85,SSW,207,0.0,0.0,53,0.00,,---,0.01,VWS V14.01,2013-09-12 15:58:00,
2013-09-12 10:59:00,78.8,60.2,29.84,SSW,207,0.0,0.0,53,0.00,,---,0.01,VWS V14.01,2013-09-12 15:59:00,
2013-09-12 11:01:00,78.8,60.2,29.84,SSW,207,0.0,0.0,53,0.00,,---,0.01,VWS V14.01,2013-09-12 16:01:00,
2013-09-12 11:04:00,79.0,60.4,29.84,SW,215,0.0,1.0,53,0.00,,---,0.01,VWS V14.01,2013-09-12 16:04:00,
2013-09-12 11:06:00,78.8,59.7,29.84,SW,215,0.0,0.0,52,0.00,,---,0.01,VWS V14.01,2013-09-12 16:06:00,
2013-09-12 11:07:00,78.8,61.3,29.84,SW,215,0.0,0.0,55,0.00,,---,0.01,VWS V14.01,2013-09-12 16:07:00,
2013-09-12 11:08:00,78.8,59.7,29.84,SW,218,0.0,1.0,52,0.00,,---,0.01,VWS V14.01,2013-09-12 16:08:00,
2013-09-12 11:11:00,78.6,59.0,29.84,SSW,200,0.0,3.0,51,0.00,,---,0.01,VWS V14.01,2013-09-12 16:11:00,
2013-09-12 11:12:00,78.6,59.0,29.84,SSW,201,0.0,2.0,51,0.00,,---,0.01,VWS V14.01,2013-09-12 16:12:00,
2013-09-12 11:13:00,78.6,59.0,29.84,SSW,201,0.0,0.0,51,0.00,,---,0.01,VWS V14.01,2013-09-12 16:13:00,
2013-09-12 11:15:00,78.8,60.8,29.84,NW,319,0.0,2.0,54,0.00,,---,0.01,VWS V14.01,2013-09-12 16:15:00,
2013-09-12 11:17:00,78.8,60.2,29.84,NNW,329,0.0,0.0,53,0.00,,---,0.01,VWS V14.01,2013-09-12 16:17:00,
2013-09-12 11:19:00,79.2,60.6,29.84,NNW,329,0.0,0.0,53,0.00,,---,0.01,VWS V14.01,2013-09-12 16:19:00,
2013-09-12 11:20:00,79.2,60.1,29.84,NNW,329,0.0,0.0,52,0.00,,---,0.01,VWS V14.01,2013-09-12 16:20:00,
2013-09-12 11:22:00,79.2,60.1,29.84,SW,220,0.0,0.0,52,0.00,,---,0.01,VWS V14.01,2013-09-12 16:22:00,
2013-09-12 11:24:00,79.2,59.5,29.84,SW,221,0.0,1.0,51,0.00,,---,0.01,VWS V14.01,2013-09-12 16:24:00,
2013-09-12 11:27:00,79.4,59.7,29.84,NW,314,0.0,1.0,51,0.00,,---,0.01,VWS V14.01,2013-09-12 16:27:00,
2013-09-12 11:28:00,79.4,59.7,29.84,NW,314,0.0,0.0,51,0.00,,---,0.01,VWS V14.01,2013-09-12 16:28:00,
2013-09-12 11:29:00,79.4,59.2,29.84,WSW,243,0.0,2.0,50,0.00,,---,0.01,VWS V14.01,2013-09-12 16:29:00,
2013-09-12 11:30:00,79.4,61.8,29.84,SSW,198,3.0,3.0,55,0.00,,---,0.01,VWS V14.01,2013-09-12 16:30:00,
2013-09-12 11:33:00,79.4,59.2,29.84,WSW,240,2.0,2.0,50,0.00,,---,0.01,VWS V14.01,2013-09-12 16:33:00,
2013-09-12 11:34:00,79.2,59.0,29.84,WSW,240,0.0,2.0,50,0.00,,---,0.01,VWS V14.01,2013-09-12 16:34:00,
2013-09-12 11:35:00,79.2,60.6,29.84,WSW,258,0.0,1.0,53,0.00,,---,0.01,VWS V14.01,2013-09-12 16:35:00,
2013-09-12 11:36:00,79.4,60.8,29.84,WSW,258,0.0,1.0,53,0.00,,---,0.01,VWS V14.01,2013-09-12 16:36:00,
2013-09-12 11:38:00,79.4,61.8,29.84,WSW,253,2.0,3.0,55,0.00,,---,0.01,VWS V14.01,2013-09-12 16:38:00,
2013-09-12 11:40:00,79.6,61.0,29.84,WSW,253,0.0,1.0,53,0.00,,---,0.01,VWS V14.01,2013-09-12 16:40:00,
2013-09-12 11:41:00,79.6,59.9,29.84,WSW,253,0.0,1.0,51,0.00,,---,0.01,VWS V14.01,2013-09-12 16:41:00,
2013-09-12 11:45:00,79.6,59.9,29.84,WSW,252,0.0,1.0,51,0.00,,---,0.01,VWS V14.01,2013-09-12 16:45:00,
2013-09-12 11:46:00,79.6,59.9,29.84,WSW,252,0.0,0.0,51,0.00,,---,0.01,VWS V14.01,2013-09-12 16:46:00,
2013-09-12 11:47:00,79.6,59.9,29.84,WSW,252,0.0,0.0,51,0.00,,---,0.01,VWS V14.01,2013-09-12 16:47:00,
2013-09-12 11:49:00,79.8,61.2,29.84,WSW,252,0.0,1.0,53,0.00,,---,0.01,VWS V14.01,2013-09-12 16:49:00,
2013-09-12 11:50:00,79.8,59.5,29.84,SW,224,0.0,3.0,50,0.00,,---,0.01,VWS V14.01,2013-09-12 16:50:00,
2013-09-12 11:54:00,80.1,59.2,29.84,SW,232,0.0,1.0,49,0.00,,---,0.01,VWS V14.01,2013-09-12 16:54:00,
2013-09-12 11:55:00,80.3,60.5,29.84,SE,143,1.0,2.0,51,0.00,,---,0.01,VWS V14.01,2013-09-12 16:55:00,
2013-09-12 11:56:00,80.3,60.5,29.84,SW,216,2.0,3.0,51,0.00,,---,0.01,VWS V14.01,2013-09-12 16:56:00,
2013-09-12 11:59:00,80.3,58.8,29.83,WSW,243,1.0,2.0,48,0.00,,---,0.01,VWS V14.01,2013-09-12 16:59:00,
2013-09-12 12:00:00,80.3,58.8,29.83,WSW,243,0.0,1.0,48,0.00,,---,0.01,VWS V14.01,2013-09-12 17:00:00,
2013-09-12 12:01:00,80.3,58.8,29.83,WSW,243,0.0,1.0,48,0.00,,---,0.01,VWS V14.01,2013-09-12 17:01:00,
2013-09-12 12:02:00,80.3,58.2,29.83,WSW,243,2.0,2.0,47,0.00,,---,0.01,VWS V14.01,2013-09-12 17:02:00,
2013-09-12 12:05:00,80.3,59.4,29.83,WSW,241,0.0,1.0,49,0.00,,---,0.01,VWS V14.01,2013-09-12 17:05:00,
2013-09-12 12:07:00,80.1,59.2,29.83,WSW,241,0.0,2.0,49,0.00,,---,0.01,VWS V14.01,2013-09-12 17:07:00,
2013-09-12 12:08:00,80.1,59.2,29.83,WSW,241,0.0,1.0,49,0.00,,---,0.01,VWS V14.01,2013-09-12 17:08:00,
2013-09-12 12:09:00,80.3,60.0,29.83,WSW,241,0.0,0.0,50,0.00,,---,0.01,VWS V14.01,2013-09-12 17:09:00,
2013-09-12 12:12:00,80.3,60.0,29.83,WSW,241,1.0,1.0,50,0.00,,---,0.01,VWS V14.01,2013-09-12 17:12:00,
2013-09-12 12:13:00,80.3,59.4,29.83,WSW,241,1.0,1.0,49,0.00,,---,0.01,VWS V14.01,2013-09-12 17:13:00,
2013-09-12 12:14:00,80.3,58.8,29.82,WSW,247,0.0,1.0,48,0.00,,---,0.01,VWS V14.01,2013-09-12 17:14:00,
2013-09-12 12:17:00,80.3,59.4,29.82,WSW,237,0.0,1.0,49,0.00,,---,0.01,VWS V14.01,2013-09-12 17:17:00,
2013-09-12 12:18:00,80.3,59.4,29.82,WSW,237,0.0,0.0,49,0.00,,---,0.01,VWS V14.01,2013-09-12 17:18:00,
2013-09-12 12:20:00,80.3,60.5,29.82,WSW,237,0.0,0.0,51,0.00,,---,0.01,VWS V14.01,2013-09-12 17:20:00,
2013-09-12 12:22:00,80.5,60.7,29.82,WSW,237,0.0,0.0,51,0.00,,---,0.01,VWS V14.01,2013-09-12 17:22:00,
2013-09-12 12:23:00,80.5,60.2,29.82,WSW,237,2.0,2.0,50,0.00,,---,0.01,VWS V14.01,2013-09-12 17:23:00,
2013-09-12 12:24:00,80.3,60.0,29.82,WSW,237,0.0,2.0,50,0.00,,---,0.01,VWS V14.01,2013-09-12 17:24:00,
2013-09-12 12:25:00,80.3,58.8,29.82,WSW,246,1.0,3.0,48,0.00,,---,0.01,VWS V14.01,2013-09-12 17:25:00,
2013-09-12 12:27:00,80.1,58.1,29.82,SW,235,0.0,3.0,47,0.00,,---,0.01,VWS V14.01,2013-09-12 17:27:00,
2013-09-12 12:29:00,80.1,60.4,29.81,SW,235,0.0,0.0,51,0.00,,---,0.01,VWS V14.01,2013-09-12 17:29:00,
2013-09-12 12:31:00,80.1,57.5,29.81,SW,215,0.0,1.0,46,0.00,,---,0.01,VWS V14.01,2013-09-12 17:31:00,
2013-09-12 12:33:00,79.9,57.9,29.81,SSW,193,1.0,3.0,47,0.00,,---,0.01,VWS V14.01,2013-09-12 17:33:00,
2013-09-12 12:34:00,79.9,57.9,29.81,NNW,342,0.0,3.0,47,0.00,,---,0.01,VWS V14.01,2013-09-12 17:34:00,
2013-09-12 12:36:00,79.9,57.9,29.81,NNW,342,0.0,0.0,47,0.00,,---,0.01,VWS V14.01,2013-09-12 17:36:00,
2013-09-12 12:39:00,79.4,57.4,29.81,SW,230,0.0,5.0,47,0.00,,---,0.01,VWS V14.01,2013-09-12 17:39:00,
2013-09-12 12:40:00,79.4,57.4,29.81,SW,230,0.0,1.0,47,0.00,,---,0.01,VWS V14.01,2013-09-12 17:40:00,
2013-09-12 12:41:00,79.4,58.0,29.81,SW,230,0.0,0.0,48,0.00,,---,0.01,VWS V14.01,2013-09-12 17:41:00,
2013-09-12 12:43:00,79.6,58.2,29.81,SW,216,0.0,3.0,48,0.00,,---,0.01,VWS V14.01,2013-09-12 17:43:00,
2013-09-12 12:45:00,79.9,59.6,29.81,ESE,106,0.0,1.0,50,0.00,,---,0.01,VWS V14.01,2013-09-12 17:45:00,
2013-09-12 12:46:00,80.1,60.4,29.81,ESE,106,0.0,1.0,51,0.00,,---,0.01,VWS V14.01,2013-09-12 17:46:00,
2013-09-12 12:48:00,80.5,59.0,29.81,ESE,105,1.0,1.0,48,0.00,,---,0.01,VWS V14.01,2013-09-12 17:48:00,
2013-09-12 12:51:00,80.7,57.4,29.81,West,276,0.0,0.0,45,0.00,,---,0.01,VWS V14.01,2013-09-12 17:51:00,
2013-09-12 12:52:00,80.7,57.4,29.81,West,276,0.0,0.0,45,0.00,,---,0.01,VWS V14.01,2013-09-12 17:52:00,
2013-09-12 12:54:00,80.9,58.8,29.81,West,276,0.0,0.0,47,0.00,,---,0.01,VWS V14.01,2013-09-12 17:54:00,
2013-09-12 12:56:00,80.7,60.3,29.81,SSW,203,2.0,2.0,50,0.00,,---,0.01,VWS V14.01,2013-09-12 17:56:00,
2013-09-12 12:57:00,80.7,58.6,29.81,SW,220,1.0,4.0,47,0.00,,---,0.01,VWS V14.01,2013-09-12 17:57:00,
2013-09-12 12:58:00,80.5,58.4,29.81,WSW,249,0.0,5.0,47,0.00,,---,0.01,VWS V14.01,2013-09-12 17:58:00,
2013-09-12 12:59:00,80.3,58.2,29.80,NW,317,0.0,3.0,47,0.00,,---,0.01,VWS V14.01,2013-09-12 17:59:00,
2013-09-12 13:00:00,80.3,58.2,29.80,SSW,207,2.0,3.0,47,0.00,,---,0.01,VWS V14.01,2013-09-12 18:00:00,
2013-09-12 13:01:00,80.1,58.1,29.80,SW,217,0.0,2.0,47,0.00,,---,0.01,VWS V14.01,2013-09-12 18:01:00,
2013-09-12 13:02:00,80.1,58.7,29.80,NNE,13,2.0,2.0,48,0.00,,---,0.01,VWS V14.01,2013-09-12 18:02:00,
2013-09-12 13:04:00,79.9,58.5,29.80,NE,45,0.0,2.0,48,0.00,,---,0.01,VWS V14.01,2013-09-12 18:04:00,
2013-09-12 13:05:00,79.8,58.4,29.80,NE,42,0.0,2.0,48,0.00,,---,0.01,VWS V14.01,2013-09-12 18:05:00,
2013-09-12 13:06:00,79.8,58.4,29.80,NE,36,0.0,0.0,48,0.00,,---,0.01,VWS V14.01,2013-09-12 18:06:00,
2013-09-12 13:07:00,79.9,59.0,29.80,SW,235,2.0,4.0,49,0.00,,---,0.01,VWS V14.01,2013-09-12 18:07:00,
2013-09-12 13:10:00,79.9,59.6,29.80,SW,233,1.0,1.0,50,0.00,,---,0.01,VWS V14.01,2013-09-12 18:10:00,
2013-09-12 13:11:00,79.9,58.5,29.80,NE,39,2.0,3.0,48,0.00,,---,0.01,VWS V14.01,2013-09-12 18:11:00,
2013-09-12 13:12:00,79.9,57.9,29.80,NE,39,0.0,2.0,47,0.00,,---,0.01,VWS V14.01,2013-09-12 18:12:00,
2013-09-12 13:13:00,79.9,58.5,29.80,SSW,202,0.0,1.0,48,0.00,,---,0.01,VWS V14.01,2013-09-12 18:13:00,
2013-09-12 13:15:00,79.9,57.9,29.79,WSW,237,1.0,1.0,47,0.00,,---,0.01,VWS V14.01,2013-09-12 18:15:00,
2013-09-12 13:16:00,79.9,58.5,29.79,SW,221,0.0,1.0,48,0.00,,---,0.01,VWS V14.01,2013-09-12 18:16:00,
2013-09-12 13:18:00,79.9,59.0,29.79,West,269,0.0,1.0,49,0.00,,---,0.01,VWS V14.01,2013-09-12 18:18:00,
2013-09-12 13:22:00,80.5,59.0,29.79,SW,233,0.0,1.0,48,0.00,,---,0.01,VWS V14.01,2013-09-12 18:22:00,
2013-09-12 13:23:00,80.7,58.0,29.79,SSW,207,2.0,7.0,46,0.00,,---,0.01,VWS V14.01,2013-09-12 18:23:00,
2013-09-12 13:24:00,80.9,57.0,29.79,SW,218,2.0,4.0,44,0.00,,---,0.01,VWS V14.01,2013-09-12 18:24:00,
2013-09-12 13:25:00,81.1,57.2,29.79,WSW,242,0.0,4.0,44,0.00,,---,0.01,VWS V14.01,2013-09-12 18:25:00,
2013-09-12 13:28:00,81.6,57.6,29.79,WSW,243,5.0,9.0,44,0.00,,---,0.01,VWS V14.01,2013-09-12 18:28:00,
2013-09-12 13:30:00,82.0,57.3,29.78,WSW,256,0.0,3.0,43,0.00,,---,0.01,VWS V14.01,2013-09-12 18:30:00,
2013-09-12 13:31:00,82.2,58.8,29.78,WNW,294,1.0,2.0,45,0.00,,---,0.01,VWS V14.01,2013-09-12 18:31:00,
2013-09-12 13:35:00,82.8,56.7,29.78,West,274,2.0,10.0,41,0.00,,---,0.01,VWS V14.01,2013-09-12 18:35:00,
2013-09-12 13:36:00,82.8,58.0,29.78,WSW,252,1.0,3.0,43,0.00,,---,0.01,VWS V14.01,2013-09-12 18:36:00,
2013-09-12 13:37:00,82.8,58.0,29.78,West,266,2.0,5.0,43,0.00,,---,0.01,VWS V14.01,2013-09-12 18:37:00,
2013-09-12 13:38:00,82.8,57.4,29.78,West,263,2.0,6.0,42,0.00,,---,0.01,VWS V14.01,2013-09-12 18:38:00,
2013-09-12 13:41:00,82.8,58.7,29.78,WSW,248,1.0,1.0,44,0.00,,---,0.01,VWS V14.01,2013-09-12 18:41:00,
2013-09-12 13:42:00,82.8,58.7,29.78,WSW,248,0.0,2.0,44,0.00,,---,0.01,VWS V14.01,2013-09-12 18:42:00,
2013-09-12 13:45:00,82.8,58.0,29.78,NW,324,1.0,2.0,43,0.00,,---,0.01,VWS V14.01,2013-09-12 18:45:00,
2013-09-12 13:46:00,82.6,57.2,29.78,North,352,3.0,4.0,42,0.00,,---,0.01,VWS V14.01,2013-09-12 18:46:00,
2013-09-12 13:50:00,82.2,58.1,29.78,SW,227,0.0,1.0,44,0.00,,---,0.01,VWS V14.01,2013-09-12 18:50:00,
2013-09-12 13:52:00,82.2,57.5,29.78,WSW,253,0.0,2.0,43,0.00,,---,0.01,VWS V14.01,2013-09-12 18:52:00,
2013-09-12 13:53:00,82.0,58.0,29.78,South,183,2.0,3.0,44,0.00,,---,0.01,VWS V14.01,2013-09-12 18:53:00,
2013-09-12 13:55:00,81.8,57.8,29.78,West,271,0.0,0.0,44,0.00,,---,0.01,VWS V14.01,2013-09-12 18:55:00,
2013-09-12 13:58:00,81.4,58.0,29.78,ENE,59,0.0,1.0,45,0.00,,---,0.01,VWS V14.01,2013-09-12 18:58:00,
2013-09-12 13:59:00,81.4,58.0,29.77,ESE,118,0.0,1.0,45,0.00,,---,0.01,VWS V14.01,2013-09-12 18:59:00,
2013-09-12 14:02:00,81.6,59.4,29.77,NW,305,0.0,0.0,47,0.00,,---,0.01,VWS V14.01,2013-09-12 19:02:00,
2013-09-12 14:03:00,81.6,59.4,29.77,South,188,0.0,2.0,47,0.00,,---,0.01,VWS V14.01,2013-09-12 19:03:00,
2013-09-12 14:04:00,81.8,58.4,29.77,South,191,2.0,2.0,45,0.00,,---,0.01,VWS V14.01,2013-09-12 19:04:00,
2013-09-12 14:06:00,82.0,59.2,29.77,North,8,0.0,0.0,46,0.00,,---,0.01,VWS V14.01,2013-09-12 19:06:00,
2013-09-12 14:08:00,82.0,58.6,29.77,SW,215,1.0,1.0,45,0.00,,---,0.01,VWS V14.01,2013-09-12 19:08:00,
2013-09-12 14:09:00,82.0,59.2,29.77,SSE,158,0.0,3.0,46,0.00,,---,0.01,VWS V14.01,2013-09-12 19:09:00,
2013-09-12 14:10:00,82.0,58.0,29.77,SE,144,0.0,1.0,44,0.00,,---,0.01,VWS V14.01,2013-09-12 19:10:00,
2013-09-12 14:11:00,82.0,59.2,29.77,West,261,1.0,1.0,46,0.00,,---,0.01,VWS V14.01,2013-09-12 19:11:00,
2013-09-12 14:14:00,81.8,57.8,29.76,WSW,243,2.0,6.0,44,0.00,,---,0.01,VWS V14.01,2013-09-12 19:14:00,
2013-09-12 14:15:00,81.8,58.4,29.76,SW,221,0.0,3.0,45,0.00,,---,0.01,VWS V14.01,2013-09-12 19:15:00,
2013-09-12 14:17:00,82.0,58.6,29.76,West,264,3.0,3.0,45,0.00,,---,0.01,VWS V14.01,2013-09-12 19:17:00,
2013-09-12 14:19:00,82.2,56.8,29.76,South,172,2.0,2.0,42,0.00,,---,0.01,VWS V14.01,2013-09-12 19:19:00,
2013-09-12 14:21:00,82.4,59.6,29.76,SSW,207,1.0,2.0,46,0.00,,---,0.01,VWS V14.01,2013-09-12 19:21:00,
2013-09-12 14:23:00,82.6,54.5,29.76,NNW,341,3.0,4.0,38,0.00,,---,0.01,VWS V14.01,2013-09-12 19:23:00,
2013-09-12 14:24:00,82.6,54.5,29.76,NW,317,3.0,3.0,38,0.00,,---,0.01,VWS V14.01,2013-09-12 19:24:00,
2013-09-12 14:25:00,82.6,53.0,29.76,North,358,4.0,6.0,36,0.00,,---,0.01,VWS V14.01,2013-09-12 19:25:00,
2013-09-12 14:26:00,82.6,53.0,29.76,NW,308,0.0,1.0,36,0.00,,---,0.01,VWS V14.01,2013-09-12 19:26:00,
2013-09-12 14:28:00,82.6,54.5,29.76,NNW,332,1.0,3.0,38,0.00,,---,0.01,VWS V14.01,2013-09-12 19:28:00,
2013-09-12 14:30:00,82.4,55.0,29.76,NNW,340,2.0,3.0,39,0.00,,---,0.01,VWS V14.01,2013-09-12 19:30:00,
2013-09-12 14:32:00,82.2,57.5,29.76,North,8,3.0,4.0,43,0.00,,---,0.01,VWS V14.01,2013-09-12 19:32:00,
2013-09-12 14:33:00,82.2,57.5,29.76,NE,39,0.0,3.0,43,0.00,,---,0.01,VWS V14.01,2013-09-12 19:33:00,
2013-09-12 14:34:00,82.2,59.4,29.76,North,1,1.0,1.0,46,0.00,,---,0.01,VWS V14.01,2013-09-12 19:34:00,
2013-09-12 14:35:00,82.2,59.4,29.76,North,0,9.0,9.0,46,0.00,,---,0.01,VWS V14.01,2013-09-12 19:35:00,
2013-09-12 14:39:00,81.6,60.0,29.76,NW,318,2.0,4.0,48,0.00,,---,0.01,VWS V14.01,2013-09-12 19:39:00,
2013-09-12 14:41:00,81.8,60.2,29.76,SSW,211,3.0,3.0,48,0.00,,---,0.01,VWS V14.01,2013-09-12 19:41:00,
2013-09-12 14:42:00,81.8,59.6,29.76,North,0,3.0,5.0,47,0.00,,---,0.01,VWS V14.01,2013-09-12 19:42:00,
2013-09-12 14:43:00,81.8,59.6,29.76,North,358,0.0,3.0,47,0.00,,---,0.01,VWS V14.01,2013-09-12 19:43:00,
2013-09-12 14:45:00,82.0,59.8,29.76,NW,319,0.0,1.0,47,0.00,,---,0.01,VWS V14.01,2013-09-12 19:45:00,
2013-09-12 14:48:00,82.2,58.1,29.76,NW,307,1.0,3.0,44,0.00,,---,0.01,VWS V14.01,2013-09-12 19:48:00,
2013-09-12 14:50:00,82.2,54.8,29.76,NW,322,3.0,12.0,39,0.00,,---,0.01,VWS V14.01,2013-09-12 19:50:00,
2013-09-12 14:51:00,82.4,51.2,29.76,WNW,301,2.0,5.0,34,0.00,,---,0.01,VWS V14.01,2013-09-12 19:51:00,
2013-09-12 14:54:00,82.4,53.5,29.76,North,358,6.0,6.0,37,0.00,,---,0.01,VWS V14.01,2013-09-12 19:54:00,
2013-09-12 14:55:00,82.2,55.5,29.76,WNW,291,3.0,11.0,40,0.00,,---,0.01,VWS V14.01,2013-09-12 19:55:00,
2013-09-12 14:56:00,82.2,56.8,29.76,NW,314,3.0,4.0,42,0.00,,---,0.01,VWS V14.01,2013-09-12 19:56:00,
2013-09-12 14:59:00,82.0,58.0,29.76,North,358,6.0,7.0,44,0.00,,---,0.01,VWS V14.01,2013-09-12 19:59:00,
2013-09-12 15:01:00,81.6,57.6,29.76,NW,322,2.0,4.0,44,0.00,,---,0.01,VWS V14.01,2013-09-12 20:01:00,
2013-09-12 15:02:00,81.4,57.4,29.76,NW,313,1.0,5.0,44,0.00,,---,0.01,VWS V14.01,2013-09-12 20:02:00,
2013-09-12 15:04:00,81.1,57.2,29.76,NNW,327,1.0,6.0,44,0.00,,---,0.01,VWS V14.01,2013-09-12 20:04:00,
2013-09-12 15:05:00,80.9,57.0,29.76,NNE,24,5.0,5.0,44,0.00,,---,0.01,VWS V14.01,2013-09-12 20:05:00,
2013-09-12 15:07:00,80.7,56.8,29.76,North,6,2.0,4.0,44,0.00,,---,0.01,VWS V14.01,2013-09-12 20:07:00,
2013-09-12 15:08:00,80.5,56.0,29.76,North,357,3.0,5.0,43,0.00,,---,0.01,VWS V14.01,2013-09-12 20:08:00,
2013-09-12 15:09:00,80.5,56.0,29.76,NW,324,1.0,7.0,43,0.00,,---,0.01,VWS V14.01,2013-09-12 20:09:00,
2013-09-12 15:10:00,80.3,55.8,29.76,NNW,335,4.0,5.0,43,0.00,,---,0.01,VWS V14.01,2013-09-12 20:10:00,
2013-09-12 15:11:00,80.3,55.8,29.76,North,355,4.0,7.0,43,0.00,,---,0.01,VWS V14.01,2013-09-12 20:11:00,
2013-09-12 15:13:00,80.1,56.2,29.76,North,349,5.0,5.0,44,0.00,,---,0.01,VWS V14.01,2013-09-12 20:13:00,
2013-09-12 15:15:00,79.8,56.0,29.76,NNW,335,7.0,7.0,44,0.00,,---,0.01,VWS V14.01,2013-09-12 20:15:00,
2013-09-12 15:16:00,79.8,56.0,29.76,North,354,1.0,6.0,44,0.00,,---,0.01,VWS V14.01,2013-09-12 20:16:00,
2013-09-12 15:17:00,79.6,56.4,29.76,WNW,298,1.0,7.0,45,0.00,,---,0.01,VWS V14.01,2013-09-12 20:17:00,
2013-09-12 15:18:00,79.6,57.0,29.76,NNW,340,3.0,3.0,46,0.00,,---,0.01,VWS V14.01,2013-09-12 20:18:00,
2013-09-12 15:21:00,79.6,55.8,29.76,North,356,2.0,5.0,44,0.00,,---,0.01,VWS V14.01,2013-09-12 20:21:00,
2013-09-12 15:22:00,79.6,55.8,29.76,NW,321,2.0,3.0,44,0.00,,---,0.01,VWS V14.01,2013-09-12 20:22:00,
2013-09-12 15:23:00,79.6,55.8,29.76,NNW,347,3.0,6.0,44,0.00,,---,0.01,VWS V14.01,2013-09-12 20:23:00,
2013-09-12 15:25:00,79.6,55.8,29.76,North,4,11.0,11.0,44,0.00,,---,0.01,VWS V14.01,2013-09-12 20:25:00,
2013-09-12 15:26:00,79.6,55.8,29.76,NNW,335,3.0,6.0,44,0.00,,---,0.01,VWS V14.01,2013-09-12 20:26:00,
2013-09-12 15:28:00,79.4,56.2,29.76,North,358,3.0,6.0,45,0.00,,---,0.01,VWS V14.01,2013-09-12 20:28:00,
2013-09-12 15:29:00,79.2,55.4,29.77,NNW,346,3.0,7.0,44,0.00,,---,0.01,VWS V14.01,2013-09-12 20:29:00,
2013-09-12 15:31:00,79.2,56.0,29.77,NNW,330,4.0,7.0,45,0.00,,---,0.01,VWS V14.01,2013-09-12 20:31:00,
2013-09-12 15:32:00,79.0,57.1,29.77,NNW,347,4.0,4.0,47,0.00,,---,0.01,VWS V14.01,2013-09-12 20:32:00,
2013-09-12 15:33:00,78.8,55.1,29.77,NNW,338,3.0,5.0,44,0.00,,---,0.01,VWS V14.01,2013-09-12 20:33:00,
2013-09-12 15:34:00,78.8,56.3,29.77,NNW,336,3.0,3.0,46,0.00,,---,0.01,VWS V14.01,2013-09-12 20:34:00,
2013-09-12 15:35:00,78.8,56.3,29.77,NNW,343,5.0,7.0,46,0.00,,---,0.01,VWS V14.01,2013-09-12 20:35:00,
2013-09-12 15:37:00,78.5,56.0,29.77,North,0,2.0,9.0,46,0.00,,---,0.01,VWS V14.01,2013-09-12 20:37:00,
2013-09-12 15:39:00,78.3,56.4,29.77,North,350,5.0,6.0,47,0.00,,---,0.01,VWS V14.01,2013-09-12 20:39:00,
2013-09-12 15:40:00,78.1,56.2,29.77,NNW,345,2.0,6.0,47,0.00,,---,0.01,VWS V14.01,2013-09-12 20:40:00,
2013-09-12 15:43:00,77.9,55.5,29.77,North,1,1.0,6.0,46,0.00,,---,0.01,VWS V14.01,2013-09-12 20:43:00,
2013-09-12 15:44:00,77.7,55.9,29.77,North,6,2.0,4.0,47,0.00,,---,0.01,VWS V14.01,2013-09-12 20:44:00,
2013-09-12 15:45:00,77.7,55.9,29.77,NW,324,5.0,6.0,47,0.00,,---,0.01,VWS V14.01,2013-09-12 20:45:00,
2013-09-12 15:46:00,77.7,55.9,29.77,North,352,2.0,7.0,47,0.00,,---,0.01,VWS V14.01,2013-09-12 20:46:00,
2013-09-12 15:50:00,77.6,55.8,29.77,North,354,6.0,9.0,47,0.00,,---,0.01,VWS V14.01,2013-09-12 20:50:00,
2013-09-12 15:51:00,77.7,55.3,29.77,North,358,3.0,4.0,46,0.00,,---,0.01,VWS V14.01,2013-09-12 20:51:00,
2013-09-12 15:53:00,77.7,55.9,29.77,North,6,3.0,5.0,47,0.00,,---,0.01,VWS V14.01,2013-09-12 20:53:00,
2013-09-12 15:56:00,77.7,55.3,29.77,North,1,3.0,6.0,46,0.00,,---,0.01,VWS V14.01,2013-09-12 20:56:00,
2013-09-12 15:58:00,77.7,55.9,29.77,North,0,4.0,6.0,47,0.00,,---,0.01,VWS V14.01,2013-09-12 20:58:00,
2013-09-12 15:59:00,77.7,55.3,29.76,NNW,345,0.0,4.0,46,0.00,,---,0.01,VWS V14.01,2013-09-12 20:59:00,
2013-09-12 16:01:00,77.7,55.9,29.76,NNW,347,2.0,4.0,47,0.00,,---,0.01,VWS V14.01,2013-09-12 21:01:00,
2013-09-12 16:02:00,77.9,56.1,29.76,NW,319,2.0,2.0,47,0.00,,---,0.01,VWS V14.01,2013-09-12 21:02:00,
2013-09-12 16:05:00,78.1,55.7,29.76,NW,306,0.0,3.0,46,0.00,,---,0.01,VWS V14.01,2013-09-12 21:05:00,
2013-09-12 16:06:00,78.1,55.7,29.76,NNW,338,1.0,7.0,46,0.00,,---,0.01,VWS V14.01,2013-09-12 21:06:00,
2013-09-12 16:07:00,78.1,56.2,29.76,NNW,338,4.0,4.0,47,0.00,,---,0.01,VWS V14.01,2013-09-12 21:07:00,
2013-09-12 16:09:00,78.1,56.8,29.76,North,0,0.0,3.0,48,0.00,,---,0.01,VWS V14.01,2013-09-12 21:09:00,
2013-09-12 16:10:00,78.1,56.8,29.76,North,0,4.0,6.0,48,0.00,,---,0.01,VWS V14.01,2013-09-12 21:10:00,
2013-09-12 16:12:00,78.1,56.2,29.76,NNW,348,2.0,6.0,47,0.00,,---,0.01,VWS V14.01,2013-09-12 21:12:00,
2013-09-12 16:14:00,78.1,56.2,29.76,NNW,348,2.0,2.0,47,0.00,,---,0.01,VWS V14.01,2013-09-12 21:14:00,
2013-09-12 16:15:00,78.1,56.2,29.76,NNW,348,2.0,2.0,47,0.00,,---,0.01,VWS V14.01,2013-09-12 21:15:00,
2013-09-12 16:16:00,77.7,57.0,29.76,North,353,3.0,3.0,49,0.00,,---,0.01,VWS V14.01,2013-09-12 21:16:00,
2013-09-12 16:18:00,77.7,57.0,29.76,North,358,1.0,5.0,49,0.00,,---,0.01,VWS V14.01,2013-09-12 21:18:00,
2013-09-12 16:20:00,77.6,57.0,29.76,North,357,2.0,4.0,49,0.00,,---,0.01,VWS V14.01,2013-09-12 21:20:00,
2013-09-12 16:22:00,77.4,56.2,29.76,North,357,6.0,6.0,48,0.00,,---,0.01,VWS V14.01,2013-09-12 21:22:00,
2013-09-12 16:23:00,77.4,56.2,29.76,NNW,347,5.0,7.0,48,0.00,,---,0.01,VWS V14.01,2013-09-12 21:23:00,
2013-09-12 16:24:00,77.4,56.8,29.76,NNW,337,5.0,5.0,49,0.00,,---,0.01,VWS V14.01,2013-09-12 21:24:00,
2013-09-12 16:25:00,77.2,57.1,29.76,North,354,9.0,12.0,50,0.00,,---,0.01,VWS V14.01,2013-09-12 21:25:00,
2013-09-12 16:27:00,77.0,57.0,29.76,NNW,347,3.0,3.0,50,0.00,,---,0.01,VWS V14.01,2013-09-12 21:27:00,
2013-09-12 16:28:00,76.8,56.8,29.77,NNW,345,7.0,7.0,50,0.00,,---,0.01,VWS V14.01,2013-09-12 21:28:00,
2013-09-12 16:29:00,76.7,56.7,29.77,North,355,5.0,5.0,50,0.00,,---,0.01,VWS V14.01,2013-09-12 21:29:00,
2013-09-12 16:30:00,76.5,57.0,29.77,North,349,12.0,12.0,51,0.00,,---,0.01,VWS V14.01,2013-09-12 21:30:00,
2013-09-12 16:32:00,76.1,57.8,29.77,North,357,4.0,10.0,53,0.00,,---,0.01,VWS V14.01,2013-09-12 21:32:00,
2013-09-12 16:33:00,76.0,58.2,29.77,NNW,344,1.0,4.0,54,0.00,,---,0.01,VWS V14.01,2013-09-12 21:33:00,
2013-09-12 16:34:00,75.8,58.0,29.77,North,0,3.0,5.0,54,0.00,,---,0.01,VWS V14.01,2013-09-12 21:34:00,
2013-09-12 16:38:00,75.4,58.1,29.77,North,358,3.0,5.0,55,0.00,,---,0.01,VWS V14.01,2013-09-12 21:38:00,
2013-09-12 16:39:00,75.3,58.0,29.77,NNW,347,7.0,11.0,55,0.00,,---,0.01,VWS V14.01,2013-09-12 21:39:00,
2013-09-12 16:42:00,74.9,58.2,29.77,North,358,5.0,8.0,56,0.00,,---,0.01,VWS V14.01,2013-09-12 21:42:00,
2013-09-12 16:43:00,74.7,58.0,29.78,North,1,4.0,4.0,56,0.00,,---,0.01,VWS V14.01,2013-09-12 21:43:00,
2013-09-12 16:45:00,74.7,58.5,29.78,NNW,347,7.0,7.0,57,0.00,,---,0.01,VWS V14.01,2013-09-12 21:45:00,
2013-09-12 16:46:00,74.6,58.9,29.78,North,354,4.0,4.0,58,0.00,,---,0.01,VWS V14.01,2013-09-12 21:46:00,
2013-09-12 16:50:00,74.4,59.2,29.78,North,8,6.0,6.0,59,0.00,,---,0.01,VWS V14.01,2013-09-12 21:50:00,
2013-09-12 16:51:00,74.2,59.0,29.78,North,358,7.0,10.0,59,0.00,,---,0.01,VWS V14.01,2013-09-12 21:51:00,
2013-09-12 16:54:00,73.9,59.6,29.78,North,0,9.0,9.0,61,0.00,,---,0.01,VWS V14.01,2013-09-12 21:54:00,
2013-09-12 16:55:00,73.7,59.4,29.78,NNE,15,5.0,5.0,61,0.00,,---,0.01,VWS V14.01,2013-09-12 21:55:00,
2013-09-12 16:56:00,73.7,59.4,29.78,North,358,1.0,2.0,61,0.00,,---,0.01,VWS V14.01,2013-09-12 21:56:00,
2013-09-12 16:58:00,73.5,60.2,29.78,North,358,7.0,7.0,63,0.00,,---,0.01,VWS V14.01,2013-09-12 21:58:00,
2013-09-12 17:00:00,73.3,60.4,29.80,NNW,339,5.0,5.0,64,0.00,,---,0.01,VWS V14.01,2013-09-12 22:00:00,
2013-09-12 17:01:00,73.3,60.4,29.80,North,6,2.0,5.0,64,0.00,,---,0.01,VWS V14.01,2013-09-12 22:01:00,
2013-09-12 17:02:00,73.2,60.7,29.80,North,1,2.0,4.0,65,0.00,,---,0.01,VWS V14.01,2013-09-12 22:02:00,
2013-09-12 17:04:00,73.0,60.5,29.80,North,0,6.0,6.0,65,0.00,,---,0.01,VWS V14.01,2013-09-12 22:04:00,
2013-09-12 17:06:00,72.7,60.7,29.80,North,0,10.0,10.0,66,0.00,,---,0.01,VWS V14.01,2013-09-12 22:06:00,
2013-09-12 17:07:00,72.5,60.5,29.80,NNW,334,2.0,3.0,66,0.00,,---,0.01,VWS V14.01,2013-09-12 22:07:00,
2013-09-12 17:09:00,72.0,60.5,29.80,NNW,336,7.0,7.0,67,0.00,,---,0.01,VWS V14.01,2013-09-12 22:09:00,
2013-09-12 17:11:00,71.6,60.1,29.80,North,0,5.0,5.0,67,0.00,,---,0.01,VWS V14.01,2013-09-12 22:11:00,
2013-09-12 17:12:00,71.1,60.4,29.80,North,0,7.0,13.0,69,0.00,,---,0.01,VWS V14.01,2013-09-12 22:12:00,
2013-09-12 17:13:00,71.1,60.4,29.80,North,355,4.0,7.0,69,0.00,,---,0.01,VWS V14.01,2013-09-12 22:13:00,
2013-09-12 17:14:00,70.9,60.2,29.81,North,0,6.0,6.0,69,0.00,,---,0.01,VWS V14.01,2013-09-12 22:14:00,
2013-09-12 17:15:00,70.4,59.8,29.81,North,6,2.0,6.0,69,0.00,,---,0.01,VWS V14.01,2013-09-12 22:15:00,
2013-09-12 17:16:00,70.4,59.8,29.81,North,4,3.0,3.0,69,0.00,,---,0.01,VWS V14.01,2013-09-12 22:16:00,
2013-09-12 17:19:00,69.9,59.7,29.81,NNW,341,5.0,5.0,70,0.00,,---,0.01,VWS V14.01,2013-09-12 22:19:00,
2013-09-12 17:20:00,69.9,60.1,29.81,North,1,3.0,8.0,71,0.00,,---,0.01,VWS V14.01,2013-09-12 22:20:00,
2013-09-12 17:22:00,69.8,60.0,29.81,North,355,7.0,13.0,71,0.00,,---,0.01,VWS V14.01,2013-09-12 22:22:00,
2013-09-12 17:24:00,69.4,59.6,29.81,NW,323,10.0,10.0,71,0.00,,---,0.01,VWS V14.01,2013-09-12 22:24:00,
2013-09-12 17:27:00,69.1,59.3,29.81,North,358,5.0,5.0,71,0.00,,---,0.01,VWS V14.01,2013-09-12 22:27:00,
2013-09-12 17:29:00,68.8,59.4,29.83,NNW,340,5.0,5.0,72,0.00,,---,0.01,VWS V14.01,2013-09-12 22:29:00,
2013-09-12 17:31:00,68.6,58.8,29.83,NNW,342,3.0,6.0,71,0.00,,---,0.01,VWS V14.01,2013-09-12 22:31:00,
2013-09-12 17:34:00,68.3,58.9,29.83,North,9,4.0,6.0,72,0.00,,---,0.01,VWS V14.01,2013-09-12 22:34:00,
2013-09-12 17:35:00,68.3,59.3,29.83,North,0,1.0,11.0,73,0.00,,---,0.01,VWS V14.01,2013-09-12 22:35:00,
2013-09-12 17:36:00,68.1,59.1,29.83,North,1,2.0,5.0,73,0.00,,---,0.01,VWS V14.01,2013-09-12 22:36:00,
2013-09-12 17:38:00,68.1,59.5,29.83,North,349,2.0,6.0,74,0.00,,---,0.01,VWS V14.01,2013-09-12 22:38:00,
2013-09-12 17:39:00,67.9,59.3,29.83,North,358,6.0,7.0,74,0.00,,---,0.01,VWS V14.01,2013-09-12 22:39:00,
2013-09-12 17:41:00,67.9,60.1,29.83,North,0,7.0,10.0,76,0.00,,---,0.01,VWS V14.01,2013-09-12 22:41:00,
2013-09-12 17:42:00,67.8,60.3,29.83,North,355,4.0,6.0,77,0.00,,---,0.01,VWS V14.01,2013-09-12 22:42:00,
2013-09-12 17:44:00,67.6,60.1,29.83,North,0,3.0,6.0,77,0.00,,---,0.01,VWS V14.01,2013-09-12 22:44:00,
2013-09-12 17:45:00,67.6,60.5,29.83,NNW,346,1.0,5.0,78,0.00,,---,0.01,VWS V14.01,2013-09-12 22:45:00,
2013-09-12 17:46:00,67.6,60.9,29.83,NNW,331,4.0,6.0,79,0.00,,---,0.01,VWS V14.01,2013-09-12 22:46:00,
2013-09-12 17:47:00,67.6,61.2,29.83,SE,138,4.0,6.0,80,0.00,,---,0.01,VWS V14.01,2013-09-12 22:47:00,
2013-09-12 17:49:00,67.4,61.0,29.83,North,0,1.0,2.0,80,0.00,,---,0.01,VWS V14.01,2013-09-12 22:49:00,
2013-09-12 17:51:00,67.4,61.0,29.83,North,351,4.0,9.0,80,0.00,,---,0.01,VWS V14.01,2013-09-12 22:51:00,
2013-09-12 17:52:00,67.4,61.0,29.83,North,354,1.0,3.0,80,0.00,,---,0.01,VWS V14.01,2013-09-12 22:52:00,
2013-09-12 17:53:00,67.4,61.4,29.83,North,353,3.0,3.0,81,0.00,,---,0.01,VWS V14.01,2013-09-12 22:53:00,
2013-09-12 17:54:00,67.4,61.4,29.83,North,0,1.0,4.0,81,0.00,,---,0.01,VWS V14.01,2013-09-12 22:54:00,
2013-09-12 17:59:00,67.1,61.1,29.84,North,0,2.0,5.0,81,0.00,,---,0.01,VWS V14.01,2013-09-12 22:59:00,
2013-09-12 18:00:00,67.1,61.1,29.84,North,5,2.0,2.0,81,0.00,,---,0.01,VWS V14.01,2013-09-12 23:00:00,
2013-09-12 18:01:00,66.9,60.9,29.84,North,358,1.0,1.0,81,0.00,,---,0.01,VWS V14.01,2013-09-12 23:01:00,
2013-09-12 18:02:00,66.9,60.5,29.84,North,358,2.0,3.0,80,0.00,,---,0.01,VWS V14.01,2013-09-12 23:02:00,
2013-09-12 18:04:00,66.9,60.9,29.84,NNW,335,0.0,4.0,81,0.00,,---,0.01,VWS V14.01,2013-09-12 23:04:00,
2013-09-12 18:05:00,66.9,60.5,29.84,NNW,342,0.0,4.0,80,0.00,,---,0.01,VWS V14.01,2013-09-12 23:05:00,
2013-09-12 18:08:00,66.8,60.4,29.84,North,0,0.0,5.0,80,0.00,,---,0.01,VWS V14.01,2013-09-12 23:08:00,
2013-09-12 18:09:00,66.8,60.4,29.84,North,356,1.0,4.0,80,0.00,,---,0.01,VWS V14.01,2013-09-12 23:09:00,
2013-09-12 18:10:00,66.8,60.4,29.84,North,2,1.0,4.0,80,0.00,,---,0.01,VWS V14.01,2013-09-12 23:10:00,
2013-09-12 18:11:00,66.8,60.4,29.84,North,358,1.0,3.0,80,0.00,,---,0.01,VWS V14.01,2013-09-12 23:11:00,
2013-09-12 18:14:00,66.8,60.4,29.84,North,356,0.0,4.0,80,0.00,,---,0.01,VWS V14.01,2013-09-12 23:14:00,
2013-09-12 18:15:00,66.8,60.4,29.84,North,356,1.0,1.0,80,0.00,,---,0.01,VWS V14.01,2013-09-12 23:15:00,
2013-09-12 18:16:00,66.8,60.4,29.84,North,0,2.0,4.0,80,0.00,,---,0.01,VWS V14.01,2013-09-12 23:16:00,
2013-09-12 18:17:00,66.8,60.4,29.84,North,356,1.0,3.0,80,0.00,,---,0.01,VWS V14.01,2013-09-12 23:17:00,
2013-09-12 18:18:00,66.6,60.2,29.84,North,0,1.0,3.0,80,0.00,,---,0.01,VWS V14.01,2013-09-12 23:18:00,
2013-09-12 18:20:00,66.6,60.2,29.84,North,0,3.0,4.0,80,0.00,,---,0.01,VWS V14.01,2013-09-12 23:20:00,
2013-09-12 18:22:00,66.6,60.2,29.84,NNW,348,0.0,2.0,80,0.00,,---,0.01,VWS V14.01,2013-09-12 23:22:00,
2013-09-12 18:23:00,66.6,60.2,29.84,North,0,2.0,4.0,80,0.00,,---,0.01,VWS V14.01,2013-09-12 23:23:00,
2013-09-12 18:24:00,66.6,59.9,29.84,North,0,3.0,3.0,79,0.00,,---,0.01,VWS V14.01,2013-09-12 23:24:00,
2013-09-12 18:25:00,66.6,59.9,29.84,North,4,3.0,4.0,79,0.00,,---,0.01,VWS V14.01,2013-09-12 23:25:00,
2013-09-12 18:27:00,66.6,59.9,29.84,North,0,3.0,3.0,79,0.00,,---,0.01,VWS V14.01,2013-09-12 23:27:00,
2013-09-12 18:29:00,66.6,59.9,29.85,North,0,2.0,2.0,79,0.00,,---,0.01,VWS V14.01,2013-09-12 23:29:00,
2013-09-12 18:30:00,66.6,59.9,29.85,North,352,3.0,4.0,79,0.00,,---,0.01,VWS V14.01,2013-09-12 23:30:00,
2013-09-12 18:31:00,66.6,59.5,29.85,North,358,2.0,3.0,78,0.00,,---,0.01,VWS V14.01,2013-09-12 23:31:00,
2013-09-12 18:33:00,66.6,59.5,29.85,North,358,0.0,1.0,78,0.00,,---,0.01,VWS V14.01,2013-09-12 23:33:00,
2013-09-12 18:34:00,66.6,59.5,29.85,NNW,345,2.0,4.0,78,0.00,,---,0.01,VWS V14.01,2013-09-12 23:34:00,
2013-09-12 18:35:00,66.6,59.5,29.85,North,0,1.0,4.0,78,0.00,,---,0.01,VWS V14.01,2013-09-12 23:35:00,
2013-09-12 18:37:00,66.6,59.2,29.85,North,4,3.0,3.0,77,0.00,,---,0.01,VWS V14.01,2013-09-12 23:37:00,
2013-09-12 18:40:00,66.6,59.2,29.85,ESE,115,0.0,1.0,77,0.00,,---,0.01,VWS V14.01,2013-09-12 23:40:00,
2013-09-12 18:41:00,66.6,59.2,29.85,ESE,115,0.0,1.0,77,0.00,,---,0.01,VWS V14.01,2013-09-12 23:41:00,
2013-09-12 18:43:00,66.6,59.2,29.85,NNE,25,0.0,1.0,77,0.00,,---,0.01,VWS V14.01,2013-09-12 23:43:00,
2013-09-12 18:44:00,66.6,59.2,29.84,NNW,339,3.0,4.0,77,0.00,,---,0.01,VWS V14.01,2013-09-12 23:44:00,
2013-09-12 18:47:00,66.4,57.9,29.84,North,0,3.0,3.0,74,0.00,,---,0.01,VWS V14.01,2013-09-12 23:47:00,
2013-09-12 18:48:00,66.4,57.9,29.84,North,0,1.0,3.0,74,0.00,,---,0.01,VWS V14.01,2013-09-12 23:48:00,
2013-09-12 18:50:00,66.4,57.9,29.84,North,0,1.0,4.0,74,0.00,,---,0.01,VWS V14.01,2013-09-12 23:50:00,
2013-09-12 18:52:00,66.6,58.1,29.84,North,6,3.0,3.0,74,0.00,,---,0.01,VWS V14.01,2013-09-12 23:52:00,
2013-09-12 18:53:00,66.6,58.1,29.84,North,1,0.0,5.0,74,0.00,,---,0.01,VWS V14.01,2013-09-12 23:53:00,
2013-09-12 18:55:00,66.6,58.1,29.84,North,0,2.0,6.0,74,0.00,,---,0.01,VWS V14.01,2013-09-12 23:55:00,
2013-09-12 18:57:00,66.6,58.1,29.84,North,0,1.0,2.0,74,0.00,,---,0.01,VWS V14.01,2013-09-12 23:57:00,
2013-09-12 18:58:00,66.6,58.1,29.84,North,0,2.0,2.0,74,0.00,,---,0.01,VWS V14.01,2013-09-12 23:58:00,
2013-09-12 19:00:00,66.4,57.9,29.85,North,0,2.0,5.0,74,0.00,,---,0.01,VWS V14.01,2013-09-13 00:00:00,
2013-09-12 19:01:00,66.4,57.9,29.85,North,0,0.0,3.0,74,0.00,,---,0.01,VWS V14.01,2013-09-13 00:01:00,
2013-09-12 19:03:00,66.4,57.9,29.85,North,10,1.0,3.0,74,0.00,,---,0.01,VWS V14.01,2013-09-13 00:03:00,
2013-09-12 19:04:00,66.4,57.9,29.85,North,6,3.0,3.0,74,0.00,,---,0.01,VWS V14.01,2013-09-13 00:04:00,
2013-09-12 19:05:00,66.4,57.9,29.85,North,4,6.0,6.0,74,0.00,,---,0.01,VWS V14.01,2013-09-13 00:05:00,
2013-09-12 19:07:00,66.4,57.9,29.85,North,0,3.0,5.0,74,0.00,,---,0.01,VWS V14.01,2013-09-13 00:07:00,
2013-09-12 19:08:00,66.4,57.9,29.85,North,0,2.0,3.0,74,0.00,,---,0.01,VWS V14.01,2013-09-13 00:08:00,
2013-09-12 19:09:00,66.3,57.8,29.85,North,0,1.0,2.0,74,0.00,,---,0.01,VWS V14.01,2013-09-13 00:09:00,
2013-09-12 19:11:00,66.3,57.8,29.85,North,0,4.0,5.0,74,0.00,,---,0.01,VWS V14.01,2013-09-13 00:11:00,
2013-09-12 19:12:00,66.3,57.8,29.85,North,0,3.0,6.0,74,0.00,,---,0.01,VWS V14.01,2013-09-13 00:12:00,
2013-09-12 19:13:00,66.3,57.8,29.85,North,0,5.0,5.0,74,0.00,,---,0.01,VWS V14.01,2013-09-13 00:13:00,
2013-09-12 19:14:00,66.3,57.8,29.86,NNW,347,3.0,4.0,74,0.00,,---,0.01,VWS V14.01,2013-09-13 00:14:00,
2013-09-12 19:15:00,66.3,57.8,29.86,NNE,28,0.0,4.0,74,0.00,,---,0.01,VWS V14.01,2013-09-13 00:15:00,
2013-09-12 19:19:00,66.1,58.0,29.86,North,358,4.0,4.0,75,0.00,,---,0.01,VWS V14.01,2013-09-13 00:19:00,
2013-09-12 19:20:00,66.1,58.0,29.86,North,0,1.0,5.0,75,0.00,,---,0.01,VWS V14.01,2013-09-13 00:20:00,
2013-09-12 19:22:00,66.0,58.2,29.86,North,0,4.0,6.0,76,0.00,,---,0.01,VWS V14.01,2013-09-13 00:22:00,
2013-09-12 19:24:00,66.0,58.2,29.86,North,349,4.0,4.0,76,0.00,,---,0.01,VWS V14.01,2013-09-13 00:24:00,
2013-09-12 19:27:00,66.0,58.2,29.86,NE,41,0.0,3.0,76,0.00,,---,0.01,VWS V14.01,2013-09-13 00:27:00,
2013-09-12 19:28:00,65.8,58.0,29.86,North,0,0.0,4.0,76,0.00,,---,0.01,VWS V14.01,2013-09-13 00:28:00,
2013-09-12 19:29:00,65.8,58.0,29.86,North,354,2.0,6.0,76,0.00,,---,0.01,VWS V14.01,2013-09-13 00:29:00,
2013-09-12 19:31:00,65.8,58.0,29.86,North,1,3.0,5.0,76,0.00,,---,0.01,VWS V14.01,2013-09-13 00:31:00,
2013-09-12 19:33:00,65.6,57.8,29.86,North,358,1.0,3.0,76,0.00,,---,0.01,VWS V14.01,2013-09-13 00:33:00,
2013-09-12 19:34:00,65.6,57.8,29.86,North,0,2.0,3.0,76,0.00,,---,0.01,VWS V14.01,2013-09-13 00:34:00,
2013-09-12 19:36:00,65.6,57.8,29.86,North,0,0.0,3.0,76,0.00,,---,0.01,VWS V14.01,2013-09-13 00:36:00,
2013-09-12 19:40:00,65.5,57.7,29.86,North,1,0.0,0.0,76,0.00,,---,0.01,VWS V14.01,2013-09-13 00:40:00,
2013-09-12 19:41:00,65.5,57.7,29.86,North,1,1.0,3.0,76,0.00,,---,0.01,VWS V14.01,2013-09-13 00:41:00,
2013-09-12 19:42:00,65.5,57.7,29.86,North,1,3.0,3.0,76,0.00,,---,0.01,VWS V14.01,2013-09-13 00:42:00,
2013-09-12 19:46:00,65.3,57.5,29.87,North,0,2.0,6.0,76,0.00,,---,0.01,VWS V14.01,2013-09-13 00:46:00,
2013-09-12 19:47:00,65.3,57.5,29.87,North,0,2.0,4.0,76,0.00,,---,0.01,VWS V14.01,2013-09-13 00:47:00,
2013-09-12 19:48:00,65.2,57.1,29.87,North,5,0.0,9.0,75,0.00,,---,0.01,VWS V14.01,2013-09-13 00:48:00,
2013-09-12 19:50:00,65.2,57.1,29.87,North,0,4.0,4.0,75,0.00,,---,0.01,VWS V14.01,2013-09-13 00:50:00,
2013-09-12 19:52:00,65.2,57.1,29.87,North,0,0.0,4.0,75,0.00,,---,0.01,VWS V14.01,2013-09-13 00:52:00,
2013-09-12 19:53:00,65.2,57.1,29.87,North,0,3.0,3.0,75,0.00,,---,0.01,VWS V14.01,2013-09-13 00:53:00,
2013-09-12 19:54:00,65.2,57.1,29.87,North,0,2.0,3.0,75,0.00,,---,0.01,VWS V14.01,2013-09-13 00:54:00,
2013-09-12 19:56:00,65.2,56.7,29.87,NW,309,2.0,3.0,74,0.00,,---,0.01,VWS V14.01,2013-09-13 00:56:00,
2013-09-12 19:57:00,65.2,56.7,29.87,North,0,0.0,1.0,74,0.00,,---,0.01,VWS V14.01,2013-09-13 00:57:00,
2013-09-12 19:58:00,65.0,56.5,29.87,North,0,0.0,3.0,74,0.00,,---,0.01,VWS V14.01,2013-09-13 00:58:00,
2013-09-12 19:59:00,65.0,56.5,29.87,North,0,1.0,4.0,74,0.00,,---,0.01,VWS V14.01,2013-09-13 00:59:00,
2013-09-12 20:00:00,65.0,56.5,29.87,North,0,0.0,4.0,74,0.00,,---,0.01,VWS V14.01,2013-09-13 01:00:00,
2013-09-12 20:01:00,65.0,56.5,29.87,North,0,0.0,3.0,74,0.00,,---,0.01,VWS V14.01,2013-09-13 01:01:00,
2013-09-12 20:02:00,65.0,56.5,29.87,North,0,1.0,2.0,74,0.00,,---,0.01,VWS V14.01,2013-09-13 01:02:00,
2013-09-12 20:04:00,65.0,56.9,29.87,North,0,0.0,0.0,75,0.00,,---,0.01,VWS V14.01,2013-09-13 01:04:00,
2013-09-12 20:07:00,64.8,56.3,29.87,North,4,2.0,3.0,74,0.00,,---,0.01,VWS V14.01,2013-09-13 01:07:00,
2013-09-12 20:10:00,64.8,56.3,29.87,North,4,1.0,1.0,74,0.00,,---,0.01,VWS V14.01,2013-09-13 01:10:00,
2013-09-12 20:12:00,64.8,56.3,29.87,North,0,3.0,4.0,74,0.00,,---,0.01,VWS V14.01,2013-09-13 01:12:00,
2013-09-12 20:13:00,64.8,56.3,29.87,North,0,0.0,1.0,74,0.00,,---,0.01,VWS V14.01,2013-09-13 01:13:00,
2013-09-12 20:14:00,64.7,56.2,29.88,North,0,1.0,2.0,74,0.00,,---,0.01,VWS V14.01,2013-09-13 01:14:00,
2013-09-12 20:17:00,64.7,56.2,29.88,North,0,1.0,2.0,74,0.00,,---,0.01,VWS V14.01,2013-09-13 01:17:00,
2013-09-12 20:18:00,64.7,56.2,29.88,North,0,0.0,4.0,74,0.00,,---,0.01,VWS V14.01,2013-09-13 01:18:00,
2013-09-12 20:19:00,64.7,56.2,29.88,North,0,0.0,2.0,74,0.00,,---,0.01,VWS V14.01,2013-09-13 01:19:00,
2013-09-12 20:20:00,64.7,56.2,29.88,North,0,2.0,2.0,74,0.00,,---,0.01,VWS V14.01,2013-09-13 01:20:00,
2013-09-12 20:23:00,64.5,56.0,29.88,North,0,2.0,3.0,74,0.00,,---,0.01,VWS V14.01,2013-09-13 01:23:00,
2013-09-12 20:25:00,64.5,56.0,29.88,North,0,1.0,1.0,74,0.00,,---,0.01,VWS V14.01,2013-09-13 01:25:00,
2013-09-12 20:26:00,64.5,56.0,29.88,North,0,2.0,4.0,74,0.00,,---,0.01,VWS V14.01,2013-09-13 01:26:00,
2013-09-12 20:30:00,64.5,56.0,29.88,North,3,0.0,1.0,74,0.00,,---,0.01,VWS V14.01,2013-09-13 01:30:00,
2013-09-12 20:32:00,64.5,56.0,29.88,North,3,0.0,1.0,74,0.00,,---,0.01,VWS V14.01,2013-09-13 01:32:00,
2013-09-12 20:34:00,64.5,56.0,29.88,North,3,0.0,2.0,74,0.00,,---,0.01,VWS V14.01,2013-09-13 01:34:00,
2013-09-12 20:35:00,64.3,55.8,29.88,North,3,2.0,2.0,74,0.00,,---,0.01,VWS V14.01,2013-09-13 01:35:00,
2013-09-12 20:36:00,64.3,55.8,29.88,North,3,2.0,2.0,74,0.00,,---,0.01,VWS V14.01,2013-09-13 01:36:00,
2013-09-12 20:37:00,64.3,55.8,29.88,North,3,0.0,2.0,74,0.00,,---,0.01,VWS V14.01,2013-09-13 01:37:00,
2013-09-12 20:39:00,64.3,55.8,29.88,North,3,0.0,0.0,74,0.00,,---,0.01,VWS V14.01,2013-09-13 01:39:00,
2013-09-12 20:40:00,64.3,55.8,29.88,North,3,0.0,0.0,74,0.00,,---,0.01,VWS V14.01,2013-09-13 01:40:00,
2013-09-12 20:41:00,64.3,55.8,29.88,North,3,0.0,0.0,74,0.00,,---,0.01,VWS V14.01,2013-09-13 01:41:00,
2013-09-12 20:42:00,64.2,55.8,29.88,North,3,0.0,2.0,74,0.00,,---,0.01,VWS V14.01,2013-09-13 01:42:00,
2013-09-12 20:45:00,64.2,55.4,29.89,NNE,18,1.0,2.0,73,0.00,,---,0.01,VWS V14.01,2013-09-13 01:45:00,
2013-09-12 20:46:00,64.2,55.8,29.89,NNE,17,0.0,3.0,74,0.00,,---,0.01,VWS V14.01,2013-09-13 01:46:00,
2013-09-12 20:47:00,64.2,55.4,29.89,NNE,17,0.0,1.0,73,0.00,,---,0.01,VWS V14.01,2013-09-13 01:47:00,
2013-09-12 20:48:00,64.2,55.4,29.89,NNE,17,2.0,3.0,73,0.00,,---,0.01,VWS V14.01,2013-09-13 01:48:00,
2013-09-12 20:49:00,64.2,55.4,29.89,North,0,2.0,4.0,73,0.00,,---,0.01,VWS V14.01,2013-09-13 01:49:00,
2013-09-12 20:52:00,64.2,55.0,29.89,North,0,3.0,5.0,72,0.00,,---,0.01,VWS V14.01,2013-09-13 01:52:00,
2013-09-12 20:53:00,64.2,55.0,29.89,North,0,0.0,3.0,72,0.00,,---,0.01,VWS V14.01,2013-09-13 01:53:00,
2013-09-12 20:55:00,64.2,55.0,29.89,North,356,0.0,3.0,72,0.00,,---,0.01,VWS V14.01,2013-09-13 01:55:00,
2013-09-12 20:58:00,64.3,54.7,29.89,North,0,4.0,5.0,71,0.00,,---,0.01,VWS V14.01,2013-09-13 01:58:00,
2013-09-12 21:00:00,64.3,54.7,29.89,North,0,0.0,2.0,71,0.00,,---,0.01,VWS V14.01,2013-09-13 02:00:00,
2013-09-12 21:01:00,64.3,54.7,29.89,North,0,2.0,3.0,71,0.00,,---,0.01,VWS V14.01,2013-09-13 02:01:00,
2013-09-12 21:02:00,64.3,54.7,29.89,North,0,2.0,2.0,71,0.00,,---,0.01,VWS V14.01,2013-09-13 02:02:00,
2013-09-12 21:03:00,64.3,54.7,29.89,North,0,0.0,1.0,71,0.00,,---,0.01,VWS V14.01,2013-09-13 02:03:00,
2013-09-12 21:04:00,64.3,54.7,29.89,North,0,1.0,4.0,71,0.00,,---,0.01,VWS V14.01,2013-09-13 02:04:00,
2013-09-12 21:05:00,64.3,54.7,29.89,North,357,2.0,2.0,71,0.00,,---,0.01,VWS V14.01,2013-09-13 02:05:00,
2013-09-12 21:08:00,64.3,54.7,29.89,North,0,0.0,1.0,71,0.00,,---,0.01,VWS V14.01,2013-09-13 02:08:00,
2013-09-12 21:09:00,64.3,54.7,29.89,North,0,0.0,1.0,71,0.00,,---,0.01,VWS V14.01,2013-09-13 02:09:00,
2013-09-12 21:10:00,64.3,54.7,29.89,North,0,2.0,5.0,71,0.00,,---,0.01,VWS V14.01,2013-09-13 02:10:00,
2013-09-12 21:11:00,64.3,54.7,29.89,North,0,2.0,2.0,71,0.00,,---,0.01,VWS V14.01,2013-09-13 02:11:00,
2013-09-12 21:14:00,64.3,54.7,29.89,North,0,1.0,1.0,71,0.00,,---,0.01,VWS V14.01,2013-09-13 02:14:00,
2013-09-12 21:15:00,64.3,54.7,29.89,North,0,0.0,3.0,71,0.00,,---,0.01,VWS V14.01,2013-09-13 02:15:00,
2013-09-12 21:16:00,64.3,54.7,29.89,North,0,1.0,3.0,71,0.00,,---,0.01,VWS V14.01,2013-09-13 02:16:00,
2013-09-12 21:17:00,64.3,54.7,29.89,North,0,0.0,1.0,71,0.00,,---,0.01,VWS V14.01,2013-09-13 02:17:00,
2013-09-12 21:19:00,64.3,55.1,29.89,North,0,2.0,2.0,72,0.00,,---,0.01,VWS V14.01,2013-09-13 02:19:00,
2013-09-12 21:20:00,64.3,55.1,29.89,North,0,0.0,2.0,72,0.00,,---,0.01,VWS V14.01,2013-09-13 02:20:00,
2013-09-12 21:21:00,64.3,55.1,29.89,North,0,2.0,3.0,72,0.00,,---,0.01,VWS V14.01,2013-09-13 02:21:00,
2013-09-12 21:23:00,64.3,55.1,29.89,North,0,0.0,0.0,72,0.00,,---,0.01,VWS V14.01,2013-09-13 02:23:00,
2013-09-12 21:25:00,64.3,55.1,29.89,North,0,4.0,4.0,72,0.00,,---,0.01,VWS V14.01,2013-09-13 02:25:00,
2013-09-12 21:27:00,64.3,55.5,29.89,North,0,2.0,3.0,73,0.00,,---,0.01,VWS V14.01,2013-09-13 02:27:00,
2013-09-12 21:28:00,64.3,55.5,29.89,North,0,0.0,2.0,73,0.00,,---,0.01,VWS V14.01,2013-09-13 02:28:00,
2013-09-12 21:29:00,64.3,55.5,29.90,North,0,0.0,1.0,73,0.00,,---,0.01,VWS V14.01,2013-09-13 02:29:00,
2013-09-12 21:32:00,64.3,55.8,29.90,North,0,0.0,1.0,74,0.00,,---,0.01,VWS V14.01,2013-09-13 02:32:00,
2013-09-12 21:33:00,64.3,55.8,29.90,North,0,0.0,4.0,74,0.00,,---,0.01,VWS V14.01,2013-09-13 02:33:00,
2013-09-12 21:34:00,64.3,55.8,29.90,North,9,3.0,4.0,74,0.00,,---,0.01,VWS V14.01,2013-09-13 02:34:00,
2013-09-12 21:39:00,64.2,55.8,29.90,North,358,4.0,7.0,74,0.00,,---,0.01,VWS V14.01,2013-09-13 02:39:00,
2013-09-12 21:40:00,64.2,55.8,29.90,North,0,0.0,4.0,74,0.00,,---,0.01,VWS V14.01,2013-09-13 02:40:00,
2013-09-12 21:41:00,64.2,55.8,29.90,ENE,74,1.0,2.0,74,0.00,,---,0.01,VWS V14.01,2013-09-13 02:41:00,
2013-09-12 21:44:00,64.2,55.8,29.89,NNE,18,0.0,0.0,74,0.00,,---,0.01,VWS V14.01,2013-09-13 02:44:00,
2013-09-12 21:45:00,64.2,55.8,29.89,NNE,18,0.0,0.0,74,0.00,,---,0.01,VWS V14.01,2013-09-13 02:45:00,
2013-09-12 21:46:00,64.2,55.8,29.89,NNE,18,0.0,0.0,74,0.00,,---,0.01,VWS V14.01,2013-09-13 02:46:00,
2013-09-12 21:49:00,64.2,55.8,29.89,North,0,0.0,5.0,74,0.00,,---,0.01,VWS V14.01,2013-09-13 02:49:00,
2013-09-12 21:51:00,64.2,55.8,29.89,North,356,3.0,3.0,74,0.00,,---,0.01,VWS V14.01,2013-09-13 02:51:00,
2013-09-12 21:53:00,64.2,55.8,29.89,North,356,0.0,0.0,74,0.00,,---,0.01,VWS V14.01,2013-09-13 02:53:00,
2013-09-12 21:56:00,64.2,56.1,29.89,North,0,3.0,3.0,75,0.00,,---,0.01,VWS V14.01,2013-09-13 02:56:00,
2013-09-12 21:58:00,64.2,55.8,29.89,North,0,0.0,2.0,74,0.00,,---,0.01,VWS V14.01,2013-09-13 02:58:00,
2013-09-12 21:59:00,64.2,56.1,29.90,NNE,29,2.0,2.0,75,0.00,,---,0.01,VWS V14.01,2013-09-13 02:59:00,
2013-09-12 22:00:00,64.2,55.8,29.90,North,0,5.0,5.0,74,0.00,,---,0.01,VWS V14.01,2013-09-13 03:00:00,
2013-09-12 22:03:00,64.2,55.8,29.90,North,5,2.0,3.0,74,0.00,,---,0.01,VWS V14.01,2013-09-13 03:03:00,
2013-09-12 22:04:00,64.2,55.8,29.90,NNE,25,1.0,1.0,74,0.00,,---,0.01,VWS V14.01,2013-09-13 03:04:00,
2013-09-12 22:05:00,64.2,55.8,29.90,NNE,25,0.0,0.0,74,0.00,,---,0.01,VWS V14.01,2013-09-13 03:05:00,
2013-09-12 22:08:00,64.2,55.8,29.90,North,357,2.0,2.0,74,0.00,,---,0.01,VWS V14.01,2013-09-13 03:08:00,
2013-09-12 22:09:00,64.2,55.8,29.90,North,358,1.0,3.0,74,0.00,,---,0.01,VWS V14.01,2013-09-13 03:09:00,
2013-09-12 22:10:00,64.2,55.8,29.90,NE,51,0.0,5.0,74,0.00,,---,0.01,VWS V14.01,2013-09-13 03:10:00,
2013-09-12 22:11:00,64.2,55.4,29.90,North,0,1.0,4.0,73,0.00,,---,0.01,VWS V14.01,2013-09-13 03:11:00,
2013-09-12 22:13:00,64.0,55.2,29.90,North,355,2.0,4.0,73,0.00,,---,0.01,VWS V14.01,2013-09-13 03:13:00,
2013-09-12 22:14:00,64.0,54.8,29.89,North,0,2.0,3.0,72,0.00,,---,0.01,VWS V14.01,2013-09-13 03:14:00,
2013-09-12 22:15:00,64.0,54.8,29.89,North,0,3.0,4.0,72,0.00,,---,0.01,VWS V14.01,2013-09-13 03:15:00,
2013-09-12 22:16:00,64.0,54.8,29.89,North,357,2.0,6.0,72,0.00,,---,0.01,VWS V14.01,2013-09-13 03:16:00,
2013-09-12 22:20:00,64.2,54.6,29.89,East,82,1.0,3.0,71,0.00,,---,0.01,VWS V14.01,2013-09-13 03:20:00,
2013-09-12 22:22:00,64.2,54.6,29.89,North,0,0.0,2.0,71,0.00,,---,0.01,VWS V14.01,2013-09-13 03:22:00,
2013-09-12 22:24:00,64.2,54.6,29.89,North,0,0.0,2.0,71,0.00,,---,0.01,VWS V14.01,2013-09-13 03:24:00,
2013-09-12 22:25:00,64.0,54.4,29.89,NE,49,0.0,0.0,71,0.00,,---,0.01,VWS V14.01,2013-09-13 03:25:00,
2013-09-12 22:26:00,64.0,54.4,29.89,NNE,32,1.0,3.0,71,0.00,,---,0.01,VWS V14.01,2013-09-13 03:26:00,
2013-09-12 22:28:00,64.0,54.4,29.89,North,1,2.0,3.0,71,0.00,,---,0.01,VWS V14.01,2013-09-13 03:28:00,
2013-09-12 22:31:00,64.0,54.4,29.90,North,1,1.0,1.0,71,0.00,,---,0.01,VWS V14.01,2013-09-13 03:31:00,
2013-09-12 22:32:00,63.9,54.3,29.90,North,1,0.0,1.0,71,0.00,,---,0.01,VWS V14.01,2013-09-13 03:32:00,
2013-09-12 22:33:00,63.9,54.7,29.90,North,1,0.0,0.0,72,0.00,,---,0.01,VWS V14.01,2013-09-13 03:33:00,
2013-09-12 22:34:00,63.9,54.7,29.90,North,1,1.0,1.0,72,0.00,,---,0.01,VWS V14.01,2013-09-13 03:34:00,
2013-09-12 22:35:00,63.9,54.7,29.90,North,1,0.0,1.0,72,0.00,,---,0.01,VWS V14.01,2013-09-13 03:35:00,
2013-09-12 22:39:00,63.9,54.7,29.90,North,0,0.0,3.0,72,0.00,,---,0.01,VWS V14.01,2013-09-13 03:39:00,
2013-09-12 22:40:00,63.9,54.7,29.90,North,0,2.0,2.0,72,0.00,,---,0.01,VWS V14.01,2013-09-13 03:40:00,
2013-09-12 22:42:00,63.7,54.5,29.90,North,0,1.0,3.0,72,0.00,,---,0.01,VWS V14.01,2013-09-13 03:42:00,
2013-09-12 22:43:00,63.7,54.5,29.90,North,0,1.0,1.0,72,0.00,,---,0.01,VWS V14.01,2013-09-13 03:43:00,
2013-09-12 22:44:00,63.7,54.5,29.90,North,357,2.0,3.0,72,0.00,,---,0.01,VWS V14.01,2013-09-13 03:44:00,
2013-09-12 22:45:00,63.7,54.1,29.90,NNE,29,0.0,3.0,71,0.00,,---,0.01,VWS V14.01,2013-09-13 03:45:00,
2013-09-12 22:48:00,63.7,54.1,29.90,North,3,0.0,3.0,71,0.00,,---,0.01,VWS V14.01,2013-09-13 03:48:00,
2013-09-12 22:50:00,63.7,53.7,29.90,North,0,4.0,4.0,70,0.00,,---,0.01,VWS V14.01,2013-09-13 03:50:00,
2013-09-12 22:51:00,63.7,53.3,29.90,North,0,1.0,3.0,69,0.00,,---,0.01,VWS V14.01,2013-09-13 03:51:00,
2013-09-12 22:52:00,63.7,53.3,29.90,North,1,4.0,4.0,69,0.00,,---,0.01,VWS V14.01,2013-09-13 03:52:00,
2013-09-12 22:53:00,63.7,53.3,29.90,North,1,3.0,5.0,69,0.00,,---,0.01,VWS V14.01,2013-09-13 03:53:00,
2013-09-12 22:55:00,63.7,53.3,29.90,North,357,3.0,4.0,69,0.00,,---,0.01,VWS V14.01,2013-09-13 03:55:00,
2013-09-12 22:56:00,63.7,53.3,29.90,North,0,9.0,11.0,69,0.00,,---,0.01,VWS V14.01,2013-09-13 03:56:00,
2013-09-12 22:58:00,63.7,53.3,29.90,NNE,19,0.0,0.0,69,0.00,,---,0.01,VWS V14.01,2013-09-13 03:58:00,
2013-09-12 22:59:00,63.7,53.3,29.90,NNE,18,2.0,2.0,69,0.00,,---,0.01,VWS V14.01,2013-09-13 03:59:00,
2013-09-12 23:00:00,63.7,53.3,29.90,North,11,1.0,1.0,69,0.00,,---,0.01,VWS V14.01,2013-09-13 04:00:00,
2013-09-12 23:01:00,63.7,53.3,29.90,NNE,14,0.0,0.0,69,0.00,,---,0.01,VWS V14.01,2013-09-13 04:01:00,
2013-09-12 23:02:00,63.7,53.3,29.90,NE,47,2.0,5.0,69,0.00,,---,0.01,VWS V14.01,2013-09-13 04:02:00,
2013-09-12 23:06:00,63.7,53.3,29.90,North,1,0.0,2.0,69,0.00,,---,0.01,VWS V14.01,2013-09-13 04:06:00,
2013-09-12 23:07:00,63.7,53.3,29.90,NNE,23,1.0,1.0,69,0.00,,---,0.01,VWS V14.01,2013-09-13 04:07:00,
2013-09-12 23:08:00,63.7,53.7,29.90,North,3,3.0,3.0,70,0.00,,---,0.01,VWS V14.01,2013-09-13 04:08:00,
2013-09-12 23:11:00,63.5,53.5,29.90,North,354,1.0,2.0,70,0.00,,---,0.01,VWS V14.01,2013-09-13 04:11:00,
2013-09-12 23:12:00,63.5,53.5,29.90,North,354,0.0,1.0,70,0.00,,---,0.01,VWS V14.01,2013-09-13 04:12:00,
2013-09-12 23:13:00,63.5,53.5,29.90,North,3,2.0,8.0,70,0.00,,---,0.01,VWS V14.01,2013-09-13 04:13:00,
2013-09-12 23:15:00,63.5,53.5,29.90,North,358,0.0,0.0,70,0.00,,---,0.01,VWS V14.01,2013-09-13 04:15:00,
2013-09-12 23:17:00,63.5,53.5,29.90,North,358,0.0,0.0,70,0.00,,---,0.01,VWS V14.01,2013-09-13 04:17:00,
2013-09-12 23:18:00,63.4,53.5,29.90,North,358,1.0,3.0,70,0.00,,---,0.01,VWS V14.01,2013-09-13 04:18:00,
2013-09-12 23:20:00,63.4,53.5,29.90,North,358,1.0,1.0,70,0.00,,---,0.01,VWS V14.01,2013-09-13 04:20:00,
2013-09-12 23:23:00,63.2,53.7,29.90,East,99,2.0,2.0,71,0.00,,---,0.01,VWS V14.01,2013-09-13 04:23:00,
2013-09-12 23:24:00,63.2,53.7,29.90,North,358,3.0,3.0,71,0.00,,---,0.01,VWS V14.01,2013-09-13 04:24:00,
2013-09-12 23:25:00,63.2,53.7,29.90,North,7,0.0,0.0,71,0.00,,---,0.01,VWS V14.01,2013-09-13 04:25:00,
2013-09-12 23:28:00,63.1,53.2,29.90,NNW,345,2.0,3.0,70,0.00,,---,0.01,VWS V14.01,2013-09-13 04:28:00,
2013-09-12 23:29:00,63.1,53.2,29.91,ESE,103,0.0,2.0,70,0.00,,---,0.01,VWS V14.01,2013-09-13 04:29:00,
2013-09-12 23:31:00,62.9,53.0,29.91,NNE,18,0.0,0.0,70,0.00,,---,0.01,VWS V14.01,2013-09-13 04:31:00,
2013-09-12 23:33:00,62.9,53.0,29.91,NNW,347,1.0,5.0,70,0.00,,---,0.01,VWS V14.01,2013-09-13 04:33:00,
2013-09-12 23:35:00,62.7,52.8,29.91,North,355,1.0,3.0,70,0.00,,---,0.01,VWS V14.01,2013-09-13 04:35:00,
2013-09-12 23:36:00,62.7,52.8,29.91,North,0,0.0,4.0,70,0.00,,---,0.01,VWS V14.01,2013-09-13 04:36:00,
2013-09-12 23:38:00,62.7,53.2,29.91,North,1,0.0,0.0,71,0.00,,---,0.01,VWS V14.01,2013-09-13 04:38:00,
2013-09-12 23:39:00,62.6,53.1,29.91,ENE,71,0.0,2.0,71,0.00,,---,0.01,VWS V14.01,2013-09-13 04:39:00,
2013-09-12 23:41:00,62.6,53.1,29.91,NNW,341,2.0,2.0,71,0.00,,---,0.01,VWS V14.01,2013-09-13 04:41:00,
2013-09-12 23:43:00,62.6,53.1,29.91,North,354,3.0,3.0,71,0.00,,---,0.01,VWS V14.01,2013-09-13 04:43:00,
2013-09-12 23:46:00,62.6,53.1,29.91,North,0,1.0,3.0,71,0.00,,---,0.01,VWS V14.01,2013-09-13 04:46:00,
2013-09-12 23:49:00,62.6,53.1,29.91,North,0,2.0,2.0,71,0.00,,---,0.01,VWS V14.01,2013-09-13 04:49:00,
2013-09-12 23:51:00,62.6,53.1,29.91,North,0,2.0,2.0,71,0.00,,---,0.01,VWS V14.01,2013-09-13 04:51:00,
2013-09-12 23:52:00,62.6,53.1,29.91,North,0,2.0,2.0,71,0.00,,---,0.01,VWS V14.01,2013-09-13 04:52:00,
2013-09-12 23:54:00,62.6,53.1,29.91,North,0,2.0,2.0,71,0.00,,---,0.01,VWS V14.01,2013-09-13 04:54:00,
2013-09-12 23:56:00,62.6,53.1,29.91,NNW,338,5.0,6.0,71,0.00,,---,0.01,VWS V14.01,2013-09-13 04:56:00,
2013-09-12 23:57:00,62.6,53.1,29.91,North,358,0.0,5.0,71,0.00,,---,0.01,VWS V14.01,2013-09-13 04:57:00,